DB0WUN-13 Weather Reports


time (UTC)temp
F
wind
direction
speed
knots
gust
knots
rain 1hr
in
rain 24hr
in
rain mn
in
humidity
%
barometer
mb
20260506033935 52 215 0.9 4.3 0.00 0.34 0.00 92 1007.0
20260506033836 52 213 0.9 4.3 0.00 0.34 0.00 92 1007.1
20260506033733 52 185 0.9 4.3 0.00 0.34 0.00 92 1007.0
20260506033532 52 186 0.9 4.3 0.00 0.34 0.00 92 1007.0
20260506033434 51 220 0.9 4.3 0.00 0.34 0.00 92 1007.0
20260506033346 52 218 0.9 4.3 0.00 0.34 0.00 92 1007.0
20260506033309 51 213 0.9 4.3 0.00 0.34 0.00 92 1007.0
20260506033146 52 235 0.9 3.5 0.00 0.34 0.00 92 1007.1
20260506033108 52 217 0.9 3.5 0.00 0.34 0.00 92 1007.1
20260506033032 51 246 1.7 3.5 0.00 0.34 0.00 92 1007.2
20260506032954 51 238 0.9 3.5 0.00 0.34 0.00 92 1007.1
20260506032924 51 239 1.7 3.5 0.00 0.34 0.00 92 1007.2
20260506032639 52 229 1.7 5.2 0.00 0.34 0.00 92 1007.1
20260506032557 51 247 1.7 5.2 0.00 0.34 0.00 92 1007.2
20260506032521 51 248 1.7 5.2 0.00 0.34 0.00 92 1007.2
20260506032430 51 247 1.7 5.2 0.00 0.34 0.00 91 1007.2
20260506032357 52 254 1.7 5.2 0.00 0.34 0.00 91 1007.2
20260506032109 51 229 1.7 5.2 0.00 0.34 0.00 91 1007.2
20260506032032 51 229 1.7 5.2 0.00 0.34 0.00 91 1007.2
20260506031959 51 217 1.7 5.2 0.00 0.34 0.00 91 1007.2
20260506031923 51 217 1.7 5.2 0.00 0.34 0.00 91 1007.2
20260506031839 51 224 1.7 5.2 0.00 0.34 0.00 91 1007.2
20260506031524 51 217 1.7 5.2 0.00 0.34 0.00 91 1007.2
20260506031426 51 218 1.7 5.2 0.00 0.34 0.00 91 1007.2
20260506031326 51 217 1.7 5.2 0.00 0.34 0.00 92 1007.3
20260506031225 51 217 1.7 5.2 0.00 0.34 0.00 92 1007.2
20260506031024 51 217 2.6 5.2 0.00 0.34 0.00 91 1007.2
20260506030926 51 215 1.7 5.2 0.00 0.34 0.00 91 1007.1
20260506030827 51 217 1.7 5.2 0.00 0.34 0.00 91 1007.1
20260506030725 51 243 2.6 5.2 0.00 0.34 0.00 91 1007.2
20260506030527 51 217 1.7 5.2 0.00 0.34 0.00 91 1007.1
20260506030424 51 215 1.7 5.2 0.00 0.34 0.00 91 1007.1
20260506030324 51 214 2.6 5.2 0.00 0.34 0.00 91 1007.1
20260506030225 51 211 2.6 5.2 0.00 0.34 0.00 91 1007.1
20260506030027 51 215 2.6 6.1 0.00 0.34 0.00 91 1007.2
20260506025929 51 217 2.6 6.1 0.00 0.34 0.00 91 1007.2
20260506025827 52 194 2.6 7.0 0.00 0.34 0.00 91 1007.2
20260506025726 51 179 2.6 7.0 0.00 0.34 0.00 91 1007.2
20260506025524 51 235 2.6 7.0 0.00 0.34 0.00 91 1007.2
20260506025424 51 195 2.6 7.0 0.00 0.34 0.00 91 1007.1
20260506025334 51 217 2.6 7.0 0.00 0.34 0.00 91 1007.1
20260506025259 51 204 2.6 7.0 0.00 0.34 0.00 91 1007.1
20260506025143 51 203 2.6 7.0 0.00 0.34 0.00 91 1007.2
20260506025101 51 216 2.6 7.0 0.00 0.34 0.00 91 1007.2
20260506025023 51 237 2.6 7.0 0.00 0.34 0.00 91 1007.2
20260506024741 52 215 2.6 5.2 0.00 0.34 0.00 91 1007.2
20260506024622 51 216 2.6 5.2 0.00 0.34 0.00 91 1007.1
20260506024533 51 235 2.6 5.2 0.00 0.34 0.00 91 1007.2
20260506024456 51 215 2.6 5.2 0.00 0.34 0.00 91 1007.2
20260506024418 52 215 2.6 5.2 0.00 0.34 0.00 91 1007.2
20260506024125 51 232 2.6 5.2 0.00 0.34 0.00 91 1007.2
20260506024025 52 217 1.7 5.2 0.00 0.34 0.00 91 1007.1
20260506023921 51 216 1.7 5.2 0.00 0.34 0.00 91 1007.2
20260506023821 52 203 1.7 5.2 0.00 0.34 0.00 91 1007.2
20260506023728 52 236 1.7 5.2 0.00 0.34 0.00 91 1007.2
20260506023622 51 217 1.7 5.2 0.00 0.34 0.00 91 1007.2
20260506023524 52 274 1.7 5.2 0.00 0.34 0.00 91 1007.2
20260506023422 52 215 1.7 5.2 0.00 0.34 0.00 91 1007.2
20260506023321 52 217 1.7 5.2 0.00 0.34 0.00 91 1007.3
20260506023222 52 216 1.7 5.2 0.00 0.34 0.00 91 1007.2
20260506023123 52 216 1.7 5.2 0.00 0.34 0.00 91 1007.3
20260506023026 52 215 1.7 5.2 0.00 0.34 0.00 91 1007.2
20260506022921 52 233 1.7 5.2 0.00 0.34 0.00 91 1007.2
20260506022828 51 227 1.7 5.2 0.00 0.34 0.00 91 1007.2
20260506022723 52 217 1.7 5.2 0.00 0.34 0.00 91 1007.2
20260506022616 51 220 1.7 5.2 0.00 0.34 0.00 91 1007.2
20260506022518 52 217 1.7 4.3 0.00 0.34 0.00 91 1007.2
20260506022421 52 216 1.7 4.3 0.00 0.34 0.00 91 1007.2
20260506022319 52 217 1.7 4.3 0.00 0.34 0.00 91 1007.2
20260506022228 52 220 1.7 4.3 0.00 0.34 0.00 91 1007.1
20260506022120 52 217 1.7 4.3 0.00 0.34 0.00 91 1007.2
20260506022022 52 217 1.7 4.3 0.00 0.34 0.00 91 1007.2
20260506021916 52 238 2.6 6.1 0.00 0.34 0.00 91 1007.2
20260506021837 52 236 2.6 6.1 0.00 0.34 0.00 91 1007.2
20260506021759 52 217 1.7 6.1 0.00 0.34 0.00 91 1007.2
20260506021718 52 217 1.7 6.1 0.00 0.34 0.00 91 1007.2
20260506021636 52 215 1.7 6.1 0.00 0.34 0.00 91 1007.2
20260506021552 52 215 2.6 6.1 0.00 0.34 0.00 91 1007.2
20260506021518 52 183 1.7 6.1 0.00 0.34 0.00 91 1007.2
20260506021226 52 217 1.7 6.1 0.00 0.34 0.00 91 1007.3
20260506021137 51 217 1.7 6.1 0.00 0.34 0.00 91 1007.3
20260506021059 52 217 1.7 6.1 0.00 0.34 0.00 91 1007.4
20260506021020 52 213 1.7 5.2 0.00 0.34 0.00 91 1007.3
20260506020945 52 217 1.7 5.2 0.00 0.34 0.00 91 1007.3
20260506020910 51 217 1.7 5.2 0.00 0.34 0.00 91 1007.3
20260506020613 51 217 1.7 6.1 0.00 0.34 0.00 91 1007.3
20260506020518 51 217 2.6 7.0 0.00 0.34 0.00 91 1007.3
20260506020412 51 210 2.6 7.0 0.00 0.34 0.00 92 1007.3
20260506020314 52 193 2.6 7.0 0.00 0.34 0.00 92 1007.3
20260506020214 51 216 3.5 7.0 0.00 0.34 0.00 92 1007.3
20260506020114 51 239 3.5 7.0 0.00 0.34 0.00 91 1007.3
20260506020020 51 217 3.5 7.0 0.00 0.34 0.00 92 1007.3
20260506015911 51 216 3.5 7.0 0.00 0.34 0.00 91 1007.3
20260506015811 51 211 3.5 7.0 0.00 0.34 0.00 91 1007.3
20260506015714 51 217 3.5 7.0 0.00 0.34 0.00 91 1007.3
20260506015617 51 209 3.5 7.0 0.00 0.34 0.00 92 1007.4
20260506015516 51 201 3.5 6.1 0.00 0.34 0.00 92 1007.3
20260506015410 51 205 2.6 6.1 0.00 0.34 0.00 92 1007.3
20260506015311 51 215 2.6 6.1 0.00 0.34 0.00 92 1007.3
20260506015203 51 216 2.6 6.1 0.00 0.34 0.00 92 1007.3
20260506015111 51 216 2.6 6.1 0.00 0.34 0.00 92 1007.3
20260506015015 51 203 2.6 5.2 0.00 0.34 0.00 92 1007.3
20260506014904 51 209 2.6 5.2 0.00 0.34 0.00 92 1007.3
20260506014807 51 210 2.6 5.2 0.00 0.34 0.00 92 1007.3
20260506014706 51 212 1.7 5.2 0.00 0.34 0.00 92 1007.2
20260506014603 51 216 1.7 5.2 0.00 0.34 0.00 92 1007.3
20260506014501 51 198 2.6 5.2 0.00 0.34 0.00 92 1007.2
20260506014401 51 229 2.6 5.2 0.00 0.34 0.00 92 1007.3
20260506014256 51 217 2.6 5.2 0.00 0.34 0.00 92 1007.3
20260506014201 51 201 2.6 5.2 0.00 0.34 0.00 92 1007.2
20260506014052 51 195 2.6 5.2 0.00 0.34 0.00 92 1007.3
20260506013949 51 218 2.6 5.2 0.00 0.34 0.00 92 1007.3
20260506013850 51 242 1.7 5.2 0.00 0.34 0.00 92 1007.3
20260506013745 52 193 2.6 5.2 0.00 0.34 0.00 92 1007.3
20260506013645 51 235 2.6 5.2 0.00 0.34 0.00 92 1007.3
20260506013542 51 191 1.7 5.2 0.00 0.34 0.00 92 1007.3
20260506013437 51 215 1.7 6.1 0.00 0.34 0.00 92 1007.3
20260506013338 51 223 1.7 6.1 0.00 0.34 0.00 92 1007.3
20260506013236 51 217 2.6 6.1 0.00 0.34 0.00 92 1007.3
20260506013134 51 217 2.6 6.1 0.00 0.34 0.00 92 1007.4
20260506013034 51 216 2.6 6.1 0.00 0.34 0.00 92 1007.3
20260506012933 51 217 1.7 6.1 0.00 0.34 0.00 92 1007.3
20260506012831 52 217 2.6 6.1 0.00 0.34 0.00 92 1007.3
20260506012731 52 210 2.6 6.1 0.00 0.34 0.00 92 1007.3
20260506012631 51 248 2.6 6.1 0.00 0.34 0.00 92 1007.3
20260506012532 52 203 1.7 6.1 0.00 0.34 0.00 92 1007.3
20260506012429 52 217 1.7 5.2 0.00 0.34 0.00 92 1007.3
20260506012327 52 216 1.7 5.2 0.00 0.34 0.00 92 1007.3
20260506012226 52 195 1.7 5.2 0.00 0.34 0.00 92 1007.3
20260506012021 52 212 1.7 6.1 0.00 0.34 0.00 92 1007.4
20260506011919 52 208 1.7 6.1 0.00 0.34 0.00 92 1007.3
20260506011816 52 178 1.7 6.1 0.00 0.34 0.00 92 1007.3
20260506011714 52 210 1.7 6.1 0.00 0.34 0.00 92 1007.3
20260506011621 52 210 2.6 6.1 0.00 0.34 0.00 92 1007.3
20260506011518 52 217 2.6 6.1 0.00 0.34 0.00 92 1007.4
20260506011411 52 234 2.6 6.1 0.00 0.34 0.00 92 1007.3
20260506011312 52 245 2.6 6.1 0.00 0.34 0.00 92 1007.4
20260506011213 52 217 2.6 6.1 0.00 0.34 0.00 92 1007.4
20260506011016 52 217 2.6 6.1 0.00 0.34 0.00 91 1007.4
20260506010911 52 217 1.7 6.1 0.00 0.34 0.00 91 1007.5
20260506010808 52 217 1.7 6.1 0.00 0.34 0.00 91 1007.5
20260506010713 52 231 1.7 6.1 0.00 0.34 0.00 91 1007.4
20260506010514 52 216 1.7 4.3 0.00 0.34 0.00 91 1007.5
20260506010406 52 216 1.7 3.5 0.00 0.34 0.00 91 1007.5
20260506010306 52 215 1.7 3.5 0.00 0.34 0.00 91 1007.5
20260506010211 52 215 1.7 3.5 0.00 0.34 0.00 91 1007.5
20260506010012 52 216 1.7 3.5 0.00 0.34 0.00 91 1007.5
20260506005905 52 214 1.7 6.1 0.00 0.34 0.00 92 1007.4
20260506005807 52 214 1.7 6.1 0.00 0.34 0.00 92 1007.5
20260506005706 52 219 1.7 6.1 0.00 0.34 0.00 92 1007.6
20260506005559 52 217 1.7 6.1 0.00 0.34 0.00 92 1007.4
20260506005500 52 201 1.7 6.1 0.00 0.34 0.00 92 1007.4
20260506005401 52 198 1.7 6.1 0.00 0.34 0.00 91 1007.5
20260506005259 52 217 1.7 6.1 0.00 0.34 0.00 91 1007.5
20260506005212 52 194 1.7 6.1 0.00 0.34 0.00 92 1007.4
20260506005120 52 184 1.7 6.1 0.00 0.34 0.00 91 1007.5
20260506005033 52 217 1.7 6.1 0.00 0.34 0.00 91 1007.5
20260506004952 52 199 1.7 3.5 0.00 0.34 0.00 92 1007.6
20260506004922 52 216 1.7 3.5 0.00 0.34 0.00 92 1007.6
20260506004844 52 239 1.7 3.5 0.00 0.34 0.00 91 1007.6
20260506004547 52 239 1.7 3.5 0.00 0.34 0.00 91 1007.6
20260506004442 52 239 1.7 3.5 0.00 0.34 0.00 91 1007.6
20260506004350 52 240 1.7 3.5 0.00 0.34 0.00 91 1007.6
20260506004313 52 236 1.7 3.5 0.00 0.34 0.00 91 1007.6
20260506004222 52 239 1.7 3.5 0.00 0.34 0.00 91 1007.5
20260506004132 52 236 1.7 3.5 0.00 0.34 0.00 91 1007.6
20260506004044 52 217 1.7 3.5 0.00 0.34 0.00 91 1007.6
20260506004004 52 225 1.7 3.5 0.00 0.34 0.00 91 1007.6
20260506003921 52 250 1.7 3.5 0.00 0.34 0.00 91 1007.5
20260506003841 52 217 1.7 3.5 0.00 0.34 0.00 91 1007.5
20260506003522 52 217 1.7 3.5 0.00 0.34 0.00 91 1007.6
20260506003426 52 217 1.7 3.5 0.00 0.34 0.00 91 1007.7
20260506003319 52 217 1.7 3.5 0.00 0.34 0.00 91 1007.5
20260506003217 52 240 2.6 6.1 0.00 0.34 0.00 91 1007.6
20260506003124 52 219 2.6 6.1 0.00 0.34 0.00 91 1007.6
20260506003021 52 246 2.6 6.1 0.00 0.34 0.00 91 1007.6
20260506002924 52 216 2.6 6.1 0.00 0.34 0.00 91 1007.7
20260506002811 52 213 2.6 6.1 0.00 0.34 0.00 91 1007.7
20260506002708 52 231 3.5 6.1 0.00 0.34 0.00 91 1007.7
20260506002612 52 232 3.5 6.1 0.00 0.34 0.00 91 1007.7
20260506002514 52 217 3.5 6.1 0.00 0.34 0.00 92 1007.7
20260506002409 52 216 3.5 6.1 0.00 0.34 0.00 92 1007.7
20260506002305 52 230 3.5 6.1 0.00 0.34 0.00 92 1007.7
20260506002203 52 217 3.5 7.0 0.00 0.34 0.00 92 1007.8
20260506002105 52 231 3.5 7.8 0.00 0.34 0.00 92 1007.8
20260506002004 52 217 3.5 7.8 0.00 0.34 0.00 92 1007.9
20260506001904 52 235 3.5 7.8 0.00 0.34 0.00 92 1007.8
20260506001758 52 219 3.5 7.8 0.00 0.34 0.00 92 1007.8
20260506001657 52 248 3.5 7.8 0.00 0.34 0.00 92 1007.9
20260506001602 52 222 3.5 7.8 0.00 0.34 0.00 92 1007.8
20260506001455 52 229 3.5 7.8 0.00 0.34 0.00 92 1007.8
20260506001359 52 217 2.6 7.8 0.00 0.34 0.00 92 1007.8
20260506001255 52 217 2.6 7.8 0.00 0.34 0.00 92 1007.9
20260506001206 52 213 2.6 7.8 0.00 0.34 0.00 92 1007.8
20260506001017 52 217 1.7 7.0 0.00 0.34 0.00 92 1007.8
20260506000944 52 233 1.7 7.0 0.00 0.34 0.00 92 1007.8
20260506000907 52 216 1.7 4.3 0.00 0.34 0.00 92 1007.8
20260506000834 52 216 1.7 4.3 0.00 0.34 0.00 92 1007.8
20260506000545 52 217 0.9 3.5 0.00 0.34 0.00 92 1007.8
20260506000445 52 217 0.9 3.5 0.00 0.34 0.00 92 1007.8
20260506000348 52 217 0.9 3.5 0.00 0.34 0.00 92 1007.7
20260506000248 52 216 0.9 2.6 0.00 0.34 0.00 92 1007.8
20260506000141 52 219 0.9 2.6 0.00 0.34 0.00 92 1007.8
20260506000039 52 223 0.9 2.6 0.00 0.34 0.00 92 1007.8
20260505235938 52 223 0.9 2.6 0.00 0.34 0.00 92 1007.8
20260505235838 52 223 1.7 3.5 0.00 0.34 0.00 92 1007.8
20260505235735 52 223 1.7 3.5 0.00 0.34 0.00 92 1007.9
20260505235639 52 224 1.7 3.5 0.00 0.34 0.00 92 1007.9
20260505235534 52 229 1.7 4.3 0.00 0.34 0.00 92 1007.7
20260505235436 52 227 1.7 4.3 0.00 0.34 0.00 92 1007.8
20260505235333 52 227 1.7 4.3 0.00 0.34 0.00 92 1007.8
20260505235231 52 227 2.6 5.2 0.00 0.34 0.00 92 1007.8
20260505235128 52 227 2.6 5.2 0.00 0.34 0.00 92 1007.8
20260505235029 52 220 2.6 5.2 0.00 0.34 0.00 92 1007.9
20260505234930 52 219 2.6 5.2 0.00 0.34 0.00 92 1007.9
20260505234827 52 224 2.6 5.2 0.00 0.34 0.00 92 1007.9
20260505234728 52 240 2.6 5.2 0.00 0.34 0.00 92 1007.9
20260505234626 52 241 2.6 5.2 0.00 0.34 0.00 92 1007.9
20260505234529 52 234 2.6 5.2 0.00 0.34 0.00 92 1007.9
20260505234419 52 249 2.6 5.2 0.00 0.34 0.00 92 1007.9
20260505234323 52 251 2.6 5.2 0.00 0.34 0.00 92 1007.9
20260505234221 52 243 2.6 5.2 0.00 0.34 0.00 92 1008.0
20260505234125 52 234 2.6 5.2 0.00 0.34 0.00 92 1008.0
20260505234027 52 220 2.6 5.2 0.00 0.34 0.00 92 1008.0
20260505233920 52 235 2.6 5.2 0.00 0.34 0.00 92 1008.0
20260505233816 52 248 1.7 5.2 0.00 0.34 0.00 92 1008.0
20260505233717 52 218 1.7 4.3 0.00 0.34 0.00 92 1008.0
20260505233618 52 237 1.7 4.3 0.00 0.34 0.00 92 1008.0
20260505233527 52 233 1.7 4.3 0.00 0.34 0.00 92 1008.0
20260505233411 52 238 1.7 4.3 0.00 0.34 0.00 92 1007.9
20260505233312 52 242 1.7 4.3 0.00 0.34 0.00 92 1007.9
20260505233217 52 243 1.7 4.3 0.00 0.34 0.00 92 1007.9
20260505233128 52 236 1.7 4.3 0.00 0.34 0.00 92 1007.9
20260505233044 52 264 1.7 4.3 0.00 0.34 0.00 93 1007.9
20260505232955 52 227 1.7 4.3 0.00 0.34 0.00 93 1007.9
20260505232923 52 227 1.7 4.3 0.00 0.34 0.00 93 1007.9
20260505232846 52 216 1.7 4.3 0.00 0.34 0.00 93 1007.9
20260505232812 52 220 1.7 4.3 0.00 0.34 0.00 93 1007.9
20260505232518 52 241 1.7 4.3 0.00 0.34 0.00 93 1007.9
20260505232407 52 215 1.7 4.3 0.00 0.34 0.00 93 1007.9
20260505232305 52 214 1.7 4.3 0.00 0.34 0.00 93 1007.9
20260505232205 52 240 1.7 4.3 0.00 0.34 0.00 93 1007.9
20260505232105 52 234 1.7 4.3 0.00 0.34 0.00 93 1007.9
20260505232015 52 236 1.7 4.3 0.00 0.34 0.00 93 1007.9
20260505231908 52 220 1.7 4.3 0.00 0.34 0.00 93 1007.9
20260505231808 52 217 1.7 4.3 0.00 0.34 0.00 93 1007.9
20260505231707 52 217 1.7 4.3 0.00 0.34 0.00 93 1008.0
20260505231606 52 227 1.7 4.3 0.00 0.34 0.00 93 1007.9
20260505231515 52 227 1.7 4.3 0.00 0.34 0.00 93 1007.9
20260505231408 52 231 1.7 4.3 0.00 0.34 0.00 93 1007.9
20260505231302 52 229 1.7 4.3 0.00 0.34 0.00 93 1007.8
20260505231203 52 229 1.7 4.3 0.00 0.34 0.00 93 1007.9
20260505231106 52 248 1.7 3.5 0.00 0.34 0.00 93 1007.9
20260505231001 52 242 1.7 3.5 0.00 0.34 0.00 93 1007.9
20260505230856 52 239 1.7 3.5 0.00 0.34 0.00 93 1007.9
20260505230753 52 248 1.7 3.5 0.00 0.34 0.00 93 1007.9
20260505230658 52 257 1.7 3.5 0.00 0.34 0.00 93 1007.9
20260505230629 52 257 1.7 3.5 0.00 0.34 0.00 93 1007.9
20260505230523 52 266 1.7 3.5 0.00 0.34 0.00 93 1007.9
20260505230446 52 278 1.7 3.5 0.00 0.34 0.00 93 1007.9
20260505230413 52 251 1.7 3.5 0.00 0.34 0.00 93 1007.9
20260505230334 52 239 0.9 3.5 0.00 0.34 0.00 93 1007.9
20260505230255 52 239 0.9 3.5 0.00 0.34 0.00 93 1007.9
20260505225942 52 246 0.9 3.5 0.00 0.34 0.00 93 1007.8
20260505225838 52 258 0.9 3.5 0.00 0.34 0.00 93 1007.9
20260505225741 52 247 0.9 2.6 0.00 0.34 0.00 93 1007.9
20260505225641 52 247 0.9 2.6 0.00 0.34 0.00 93 1007.9
20260505225436 52 217 0.9 3.5 0.00 0.34 0.00 93 1007.9
20260505225334 52 217 0.9 3.5 0.00 0.34 0.00 93 1007.9
20260505225231 52 217 0.9 3.5 0.00 0.34 0.00 93 1008.0
20260505225133 52 217 0.9 3.5 0.00 0.34 0.00 93 1007.9
20260505224933 52 217 0.9 3.5 0.00 0.34 0.00 93 1007.9
20260505224832 52 217 0.9 3.5 0.00 0.34 0.00 93 1007.9
20260505224732 52 217 0.9 3.5 0.00 0.34 0.00 93 1007.9
20260505224637 52 217 0.9 3.5 0.00 0.34 0.00 93 1007.8
20260505224430 52 217 0.0 1.7 0.00 0.34 0.00 93 1007.9
20260505224330 52 217 0.0 1.7 0.00 0.34 0.00 93 1007.9
20260505224228 51 217 0.0 1.7 0.00 0.34 0.00 93 1007.8
20260505224126 52 217 0.0 1.7 0.00 0.34 0.00 93 1007.9
20260505223928 51 217 0.0 1.7 0.00 0.34 0.00 93 1007.8
20260505223827 51 217 0.0 1.7 0.00 0.34 0.00 93 1007.9
20260505223725 51 217 0.0 1.7 0.00 0.34 0.00 93 1007.8
20260505223624 51 217 0.0 1.7 0.00 0.34 0.00 93 1007.8
20260505223423 51 217 0.0 0.9 0.00 0.34 0.00 93 1007.9
20260505223321 51 217 0.0 0.9 0.00 0.34 0.00 93 1007.9
20260505223226 51 217 0.0 0.9 0.00 0.34 0.00 93 1007.9
20260505223123 51 217 0.0 0.9 0.00 0.34 0.00 93 1007.9
20260505223024 51 217 0.0 0.9 0.00 0.34 0.00 93 1008.0
20260505222921 51 217 0.0 0.9 0.00 0.34 0.00 93 1008.0
20260505222822 51 217 0.0 0.9 0.00 0.34 0.00 93 1007.9
20260505222716 51 217 0.0 0.9 0.00 0.34 0.00 93 1008.0
20260505222615 51 217 0.0 0.9 0.00 0.34 0.00 93 1007.9
20260505222414 51 217 0.0 0.9 0.00 0.34 0.00 93 1007.9
20260505222311 51 217 0.0 0.9 0.00 0.34 0.00 93 1007.9
20260505222205 51 217 0.0 0.9 0.00 0.34 0.00 93 1007.9
20260505222111 51 217 0.0 0.9 0.00 0.34 0.00 93 1007.9
20260505221907 51 217 0.0 0.9 0.00 0.34 0.00 93 1007.9
20260505221806 51 217 0.0 0.9 0.00 0.34 0.00 93 1007.9
20260505221706 51 217 0.0 0.9 0.00 0.34 0.00 93 1008.0
20260505221607 51 217 0.0 0.0 0.00 0.34 0.00 93 1007.9
20260505221407 51 217 0.0 0.0 0.00 0.34 0.00 93 1007.8
20260505221301 51 217 0.0 0.0 0.00 0.34 0.00 93 1007.9
20260505221158 51 217 0.0 0.0 0.00 0.34 0.00 93 1007.8
20260505221057 51 217 0.0 0.0 0.00 0.34 0.00 93 1007.8
20260505221005 51 217 0.0 0.0 0.00 0.34 0.00 93 1007.8
20260505220926 51 217 0.0 0.0 0.00 0.34 0.00 93 1007.8
20260505220851 51 217 0.0 0.0 0.00 0.34 0.00 93 1007.9
20260505220819 51 217 0.0 0.9 0.00 0.34 0.00 93 1007.9
20260505220748 51 217 0.0 0.9 0.00 0.34 0.00 93 1007.9
20260505220451 51 217 0.0 0.9 0.00 0.34 0.00 93 1007.9
20260505220349 51 217 0.0 0.9 0.00 0.34 0.00 93 1007.9
20260505220246 51 217 0.0 0.9 0.00 0.34 0.00 93 1007.9
20260505220146 51 217 0.0 0.9 0.00 0.34 0.00 93 1008.0
20260505220041 51 217 0.0 0.9 0.00 0.34 0.00 93 1008.0
20260505215940 51 217 0.0 0.9 0.00 0.34 0.34 93 1008.0
20260505215840 51 217 0.0 0.9 0.00 0.34 0.34 93 1008.0
20260505215740 51 217 0.0 0.9 0.00 0.34 0.34 93 1008.1
20260505215640 51 217 0.0 0.9 0.00 0.34 0.34 93 1008.0
20260505215539 51 217 0.0 1.7 0.00 0.34 0.34 93 1008.0
20260505215449 51 217 0.0 1.7 0.00 0.34 0.34 93 1008.0
20260505215341 51 217 0.0 1.7 0.00 0.34 0.34 93 1008.0
20260505215241 51 217 0.0 1.7 0.00 0.34 0.34 93 1008.0
20260505215134 51 217 0.0 1.7 0.00 0.34 0.34 93 1008.0
20260505215039 51 217 0.0 1.7 0.00 0.34 0.34 93 1008.0
20260505214937 51 217 0.9 1.7 0.00 0.34 0.34 93 1008.0
20260505214836 51 217 0.9 1.7 0.00 0.34 0.34 93 1008.0
20260505214735 51 217 0.9 1.7 0.00 0.34 0.34 93 1008.1
20260505214637 51 217 0.9 1.7 0.00 0.34 0.34 93 1008.1
20260505214542 51 217 0.9 1.7 0.00 0.34 0.34 93 1008.0
20260505214435 51 217 0.9 1.7 0.00 0.34 0.34 93 1008.1
20260505214337 51 217 0.9 1.7 0.00 0.34 0.34 93 1008.1
20260505214234 51 217 0.9 1.7 0.00 0.34 0.34 93 1008.0
20260505214137 51 217 0.9 2.6 0.00 0.34 0.34 93 1008.0
20260505214036 51 217 0.9 2.6 0.00 0.34 0.34 93 1008.0
20260505213929 51 217 0.9 2.6 0.00 0.34 0.34 93 1008.1
20260505213828 51 217 0.9 2.6 0.00 0.34 0.34 93 1008.1
20260505213756 51 217 0.9 2.6 0.00 0.34 0.34 93 1008.1
20260505213723 51 217 0.9 2.6 0.00 0.34 0.34 93 1008.1
20260505213648 51 217 0.9 2.6 0.00 0.34 0.34 93 1008.1
20260505213545 51 217 0.9 2.6 0.00 0.34 0.34 93 1008.0
20260505213505 51 217 0.9 2.6 0.00 0.34 0.34 93 1008.1
20260505213226 51 217 0.9 2.6 0.00 0.34 0.34 93 1008.1
20260505213149 51 217 0.9 2.6 0.00 0.34 0.34 93 1008.1
20260505213119 51 217 0.9 2.6 0.00 0.34 0.34 93 1008.1
20260505213013 51 217 0.9 2.6 0.00 0.34 0.34 93 1008.1
20260505212928 51 217 0.9 2.6 0.00 0.34 0.34 93 1008.1
20260505212841 51 220 0.9 2.6 0.00 0.34 0.34 93 1008.2
20260505212811 51 224 0.9 2.6 0.00 0.34 0.34 93 1008.2
20260505212735 51 226 0.9 2.6 0.00 0.34 0.34 93 1008.2
20260505212421 51 228 0.0 2.6 0.00 0.34 0.34 93 1008.2
20260505212314 51 322 0.0 1.7 0.00 0.34 0.34 93 1008.2
20260505212204 51 322 0.0 1.7 0.00 0.34 0.34 93 1008.2
20260505212116 51 322 0.0 1.7 0.00 0.34 0.34 93 1008.1
20260505211908 51 322 0.0 1.7 0.00 0.34 0.34 93 1008.1
20260505211805 51 322 0.0 1.7 0.00 0.34 0.34 93 1008.2
20260505211707 51 322 0.0 1.7 0.00 0.34 0.34 93 1008.1
20260505211608 51 322 0.0 1.7 0.00 0.34 0.34 93 1008.2
20260505211449 51 322 0.0 1.7 0.00 0.34 0.34 93 1008.3
20260505211410 51 322 0.0 0.0 0.00 0.34 0.34 93 1008.3
20260505211340 51 322 0.0 0.0 0.00 0.34 0.34 93 1008.3
20260505211308 51 322 0.0 0.0 0.00 0.34 0.34 93 1008.3
20260505211231 51 322 0.0 0.0 0.00 0.34 0.34 93 1008.3
20260505210915 51 322 0.0 0.0 0.00 0.34 0.34 93 1008.2
20260505210806 51 322 0.0 0.9 0.00 0.34 0.34 93 1008.3
20260505210709 51 322 0.0 0.9 0.00 0.34 0.34 93 1008.2
20260505210605 51 322 0.0 0.9 0.00 0.34 0.34 93 1008.3
20260505210412 51 322 0.0 0.9 0.00 0.34 0.34 93 1008.2
20260505210307 51 322 0.0 0.9 0.00 0.34 0.34 92 1008.2
20260505210241 51 322 0.0 0.9 0.00 0.34 0.34 92 1008.3
20260505210210 51 322 0.0 0.9 0.00 0.34 0.34 92 1008.2
20260505210041 51 322 0.0 0.9 0.00 0.34 0.34 92 1008.2
20260505210006 51 322 0.0 0.9 0.00 0.34 0.34 92 1008.1
20260505205934 51 322 0.0 0.9 0.00 0.34 0.34 92 1008.1
20260505205907 51 322 0.0 1.7 0.00 0.34 0.34 92 1008.1
20260505205827 51 322 0.0 1.7 0.00 0.34 0.34 92 1008.1
20260505205522 52 322 0.0 1.7 0.00 0.34 0.34 92 1008.2
20260505205443 52 322 0.0 1.7 0.00 0.34 0.34 92 1008.1
20260505205409 52 322 0.0 1.7 0.00 0.34 0.34 93 1008.1
20260505205339 52 322 0.0 1.7 0.00 0.34 0.34 93 1008.2
20260505205305 52 322 0.0 1.7 0.00 0.34 0.34 93 1008.2
20260505204959 51 322 0.0 1.7 0.00 0.34 0.34 92 1008.3
20260505204919 51 322 0.0 1.7 0.00 0.34 0.34 92 1008.2
20260505204837 51 322 0.0 1.7 0.00 0.34 0.34 92 1008.1
20260505204804 51 322 0.0 1.7 0.00 0.34 0.34 92 1008.2
20260505204456 51 322 0.0 1.7 0.00 0.34 0.34 92 1008.2
20260505204354 51 322 0.0 1.7 0.00 0.34 0.34 92 1008.1
20260505204253 52 322 0.0 1.7 0.00 0.34 0.34 92 1008.1
20260505204156 52 322 0.0 0.9 0.00 0.34 0.34 92 1008.1
20260505204050 52 322 0.0 0.9 0.00 0.34 0.34 92 1008.0
20260505203951 52 322 0.0 0.9 0.00 0.34 0.34 92 1008.1
20260505203845 52 322 0.0 0.9 0.00 0.34 0.34 92 1008.1
20260505203743 52 322 0.0 0.9 0.00 0.34 0.34 92 1008.1
20260505203649 52 322 0.0 0.9 0.00 0.34 0.34 92 1008.0
20260505203605 52 322 0.0 0.9 0.00 0.34 0.34 92 1008.1
20260505203518 52 322 0.0 0.9 0.00 0.34 0.34 92 1008.1
20260505203444 51 322 0.0 0.9 0.00 0.34 0.34 92 1008.1
20260505203409 51 322 0.0 0.9 0.00 0.34 0.34 92 1008.1
20260505203333 51 322 0.0 0.9 0.00 0.34 0.34 92 1008.1
20260505203254 51 322 0.0 0.9 0.00 0.34 0.34 92 1008.1
20260505202952 51 322 0.0 0.9 0.00 0.34 0.34 92 1008.1
20260505202918 51 322 0.0 0.9 0.00 0.34 0.34 92 1008.1
20260505202838 51 322 0.0 0.9 0.00 0.34 0.34 92 1008.1
20260505202809 51 322 0.0 0.9 0.00 0.34 0.34 92 1008.1
20260505202737 52 322 0.0 0.9 0.00 0.34 0.34 92 1008.1
20260505202422 52 322 0.0 0.9 0.00 0.34 0.34 92 1008.1
20260505202322 52 322 0.0 0.9 0.00 0.34 0.34 91 1008.1
20260505202224 52 322 0.0 0.9 0.00 0.34 0.34 91 1008.1
20260505202124 52 322 0.0 0.9 0.00 0.34 0.34 91 1008.1
20260505202024 52 322 0.0 0.9 0.00 0.34 0.34 92 1008.0
20260505201922 52 322 0.0 0.9 0.00 0.34 0.34 92 1008.1
20260505201820 52 322 0.0 0.9 0.00 0.34 0.34 92 1008.1
20260505201720 52 322 0.0 0.9 0.00 0.34 0.34 92 1008.0
20260505201621 52 322 0.0 0.9 0.00 0.34 0.34 91 1008.1
20260505201521 52 322 0.0 0.0 0.00 0.34 0.34 92 1008.1
20260505201413 52 322 0.0 0.0 0.00 0.34 0.34 92 1008.0
20260505201314 52 322 0.0 0.0 0.00 0.34 0.34 91 1008.1
20260505201215 52 322 0.0 0.0 0.00 0.34 0.34 91 1008.0
20260505201109 52 322 0.0 0.0 0.00 0.34 0.34 92 1008.0
20260505201018 52 322 0.0 0.0 0.00 0.34 0.34 91 1008.0
20260505200907 52 322 0.0 0.0 0.00 0.34 0.34 91 1008.0
20260505200809 52 322 0.0 0.0 0.00 0.34 0.34 91 1008.1
20260505200705 52 322 0.0 0.0 0.00 0.34 0.34 91 1008.0
20260505200604 52 322 0.0 0.9 0.00 0.34 0.34 91 1008.0
20260505200512 52 322 0.0 0.9 0.00 0.34 0.34 91 1007.9
20260505200405 52 322 0.0 0.9 0.00 0.34 0.34 91 1007.9
20260505200304 52 322 0.0 0.9 0.00 0.34 0.34 91 1007.9
20260505200207 52 322 0.0 0.9 0.00 0.34 0.34 91 1007.8
20260505200111 52 322 0.0 0.9 0.00 0.34 0.34 91 1007.8
20260505200013 52 322 0.0 0.9 0.00 0.34 0.34 91 1007.8
20260505195902 52 322 0.0 0.9 0.00 0.34 0.34 91 1007.8
20260505195803 52 322 0.0 0.9 0.00 0.34 0.34 91 1007.7
20260505195705 52 322 0.0 0.9 0.00 0.34 0.34 91 1007.7
20260505195600 52 322 0.0 0.9 0.00 0.34 0.34 91 1007.6
20260505195503 52 322 0.0 0.9 0.00 0.34 0.34 91 1007.6
20260505195355 52 322 0.0 0.9 0.00 0.34 0.34 91 1007.7
20260505195300 52 322 0.0 0.9 0.00 0.34 0.34 91 1007.6
20260505195154 52 322 0.0 0.9 0.00 0.34 0.34 91 1007.6
20260505195054 52 322 0.0 0.9 0.00 0.34 0.34 90 1007.6
20260505194846 52 322 0.0 1.7 0.00 0.34 0.34 90 1007.6
20260505194751 52 322 0.0 1.7 0.00 0.34 0.34 90 1007.5
20260505194646 52 322 0.0 1.7 0.00 0.34 0.34 90 1007.6
20260505194544 52 322 0.0 1.7 0.00 0.34 0.34 90 1007.6
20260505194336 52 322 0.0 1.7 0.00 0.34 0.34 90 1007.5
20260505194237 52 322 0.0 1.7 0.00 0.34 0.34 90 1007.6
20260505194138 52 322 0.0 2.6 0.00 0.34 0.34 90 1007.6
20260505194036 52 316 0.0 2.6 0.00 0.34 0.34 90 1007.6
20260505193939 52 316 0.0 2.6 0.00 0.34 0.34 90 1007.5
20260505193831 53 316 0.0 2.6 0.00 0.34 0.34 90 1007.6
20260505193731 53 275 0.9 2.6 0.00 0.34 0.34 90 1007.5
20260505193628 53 274 0.9 3.5 0.00 0.34 0.34 90 1007.4
20260505193545 53 275 0.9 3.5 0.00 0.34 0.34 90 1007.4
20260505193451 53 275 0.9 3.5 0.00 0.34 0.34 90 1007.4
20260505193417 53 275 0.9 3.5 0.00 0.34 0.34 90 1007.4
20260505193344 53 275 0.9 3.5 0.00 0.34 0.34 90 1007.4
20260505193304 53 307 0.9 3.5 0.00 0.34 0.34 90 1007.4
20260505193226 53 309 1.7 4.3 0.00 0.34 0.34 90 1007.3
20260505192918 53 309 1.7 7.8 0.00 0.34 0.34 90 1007.3
20260505192817 53 309 1.7 7.8 0.01 0.34 0.34 90 1007.3
20260505192719 53 309 1.7 7.8 0.01 0.34 0.34 90 1007.3
20260505192617 53 281 1.7 7.8 0.01 0.34 0.34 90 1007.2
20260505192520 53 281 1.7 7.8 0.01 0.34 0.34 91 1007.2
20260505192410 53 331 1.7 7.8 0.01 0.34 0.34 90 1007.2
20260505192306 53 331 2.6 7.8 0.01 0.34 0.34 90 1007.3
20260505192205 52 332 2.6 7.8 0.01 0.34 0.34 90 1007.3
20260505192106 53 332 2.6 7.8 0.01 0.34 0.34 90 1007.3
20260505192014 53 290 2.6 7.8 0.01 0.34 0.34 90 1007.3
20260505191904 52 319 2.6 7.0 0.01 0.34 0.34 90 1007.3
20260505191805 53 300 2.6 7.0 0.01 0.34 0.34 90 1007.2
20260505191705 53 319 2.6 7.0 0.02 0.34 0.34 90 1007.2
20260505191602 53 326 3.5 7.8 0.02 0.34 0.34 90 1007.3
20260505191503 53 324 3.5 7.8 0.02 0.34 0.34 90 1007.3
20260505191402 53 328 3.5 7.8 0.02 0.34 0.34 90 1007.3
20260505191301 53 312 3.5 7.8 0.02 0.34 0.34 90 1007.3
20260505191206 53 314 3.5 7.8 0.02 0.34 0.34 90 1007.3
20260505191127 53 291 3.5 7.8 0.02 0.34 0.34 90 1007.3
20260505191043 53 307 3.5 7.8 0.03 0.34 0.34 90 1007.3
20260505190955 53 291 4.3 7.8 0.03 0.34 0.34 90 1007.3
20260505190916 53 324 4.3 7.8 0.03 0.34 0.34 90 1007.3
20260505190834 53 333 4.3 7.8 0.03 0.34 0.34 90 1007.3
20260505190752 53 322 4.3 7.8 0.04 0.34 0.34 90 1007.3
20260505190701 53 319 3.5 7.8 0.04 0.34 0.34 90 1007.4
20260505190400 53 322 4.3 9.6 0.04 0.34 0.34 90 1007.3
20260505190301 53 325 4.3 9.6 0.05 0.34 0.34 90 1007.3
20260505190155 53 334 4.3 9.6 0.05 0.34 0.34 90 1007.2
20260505190051 53 300 3.5 9.6 0.06 0.34 0.34 90 1007.2
20260505185952 53 313 3.5 9.6 0.06 0.34 0.34 90 1007.2
20260505185850 53 326 3.5 9.6 0.07 0.34 0.34 89 1007.3
20260505185750 53 328 3.5 9.6 0.07 0.34 0.34 89 1007.3
20260505185650 53 342 3.5 9.6 0.08 0.34 0.34 89 1007.3
20260505185548 53 272 3.5 9.6 0.09 0.34 0.34 89 1007.3
20260505185448 53 338 3.5 9.6 0.09 0.34 0.34 89 1007.3
20260505185350 53 295 3.5 7.0 0.10 0.34 0.34 89 1007.3
20260505185247 53 311 3.5 7.8 0.11 0.34 0.34 89 1007.3
20260505185146 53 292 3.5 7.8 0.12 0.34 0.34 89 1007.4
20260505185045 53 290 3.5 7.8 0.13 0.34 0.34 89 1007.5
20260505184949 53 324 3.5 7.8 0.13 0.34 0.34 89 1007.4
20260505184848 53 324 3.5 7.8 0.15 0.34 0.34 89 1007.4
20260505184749 53 319 3.5 7.8 0.17 0.34 0.34 89 1007.6
20260505184709 53 290 3.5 7.8 0.18 0.34 0.34 89 1007.6
20260505184637 53 302 2.6 7.8 0.19 0.34 0.34 89 1007.6
20260505184543 53 297 2.6 7.8 0.20 0.34 0.34 89 1007.6
20260505184457 53 295 1.7 7.8 0.22 0.34 0.34 89 1007.8
20260505184421 53 276 1.7 7.0 0.24 0.34 0.34 89 1007.8
20260505184335 53 289 0.9 7.0 0.26 0.34 0.34 89 1007.8
20260505184050 53 310 0.9 7.0 0.28 0.34 0.34 89 1007.8
20260505183957 53 317 0.9 4.3 0.30 0.34 0.34 89 1007.8
20260505183913 53 329 0.0 4.3 0.31 0.34 0.34 90 1007.8
20260505183839 53 336 0.0 3.5 0.31 0.34 0.34 89 1007.8
20260505183756 53 336 0.0 3.5 0.32 0.34 0.34 89 1007.9
20260505183726 53 337 0.0 3.5 0.34 0.34 0.34 89 1007.8
20260505183641 53 337 0.0 3.5 0.34 0.34 0.34 89 1007.9
20260505183334 53 337 0.0 3.5 0.34 0.34 0.34 89 1007.9
20260505183233 53 337 0.0 3.5 0.34 0.34 0.34 89 1007.9
20260505183129 53 337 0.0 3.5 0.34 0.34 0.34 89 1008.0
20260505183028 53 337 0.0 3.5 0.34 0.34 0.34 89 1008.0
20260505182940 53 337 0.0 3.5 0.34 0.34 0.33 89 1008.1
20260505182859 53 337 0.0 6.1 0.33 0.33 0.33 89 1008.1
20260505182822 53 36 0.0 6.1 0.33 0.33 0.33 89 1008.1
20260505182744 53 36 0.0 6.1 0.33 0.33 0.33 89 1008.1
20260505182712 53 36 0.0 6.1 0.33 0.33 0.33 89 1008.1
20260505182627 53 36 0.0 6.1 0.33 0.33 0.33 89 1008.1
20260505182315 53 39 0.0 6.1 0.33 0.33 0.33 89 1007.9
20260505182215 53 39 0.9 6.1 0.33 0.33 0.33 89 1007.9
20260505182118 53 39 0.9 6.1 0.33 0.33 0.33 88 1007.9
20260505182020 53 39 1.7 6.1 0.33 0.33 0.33 88 1007.9
20260505181810 53 39 2.6 7.8 0.33 0.33 0.32 88 1007.8
20260505181710 53 38 2.6 10.4 0.32 0.32 0.32 88 1007.9
20260505181606 53 29 3.5 10.4 0.32 0.32 0.32 88 1007.8
20260505181522 53 331 3.5 10.4 0.32 0.32 0.32 88 1007.9
20260505181404 54 288 4.3 10.4 0.32 0.32 0.31 88 1007.9
20260505181304 54 248 4.3 10.4 0.31 0.31 0.31 88 1007.9
20260505181208 54 306 5.2 10.4 0.31 0.31 0.31 88 1007.9
20260505181058 54 276 5.2 10.4 0.31 0.31 0.31 88 1007.8
20260505180952 54 298 6.1 10.4 0.31 0.31 0.31 87 1007.8
20260505180855 54 264 6.1 10.4 0.31 0.31 0.31 87 1007.8
20260505180754 54 257 6.1 10.4 0.31 0.31 0.31 87 1007.8
20260505180657 54 286 6.1 10.4 0.31 0.31 0.30 87 1007.8
20260505180549 54 220 7.0 11.3 0.30 0.30 0.30 87 1007.9
20260505180443 54 269 7.0 12.2 0.30 0.30 0.30 87 1007.9
20260505180346 54 268 7.0 18.2 0.30 0.30 0.29 87 1007.8
20260505180244 54 228 7.0 18.2 0.29 0.29 0.29 87 1007.9
20260505180146 54 265 7.0 18.2 0.28 0.28 0.28 87 1007.9
20260505180042 54 246 7.0 18.2 0.28 0.28 0.28 86 1007.8
20260505175944 54 262 7.0 18.2 0.28 0.28 0.27 86 1007.7
20260505175842 54 238 7.0 18.2 0.27 0.27 0.26 86 1007.9
20260505175741 54 294 7.8 18.2 0.26 0.26 0.26 86 1007.8
20260505175643 54 274 7.8 18.2 0.25 0.25 0.25 86 1007.7
20260505175536 54 278 7.8 18.2 0.25 0.25 0.24 86 1007.7
20260505175435 54 295 7.8 18.2 0.24 0.24 0.24 85 1007.6
20260505175335 54 280 7.8 15.6 0.24 0.24 0.23 85 1007.7
20260505175236 54 269 7.8 15.6 0.23 0.23 0.22 85 1007.7
20260505175136 55 240 7.8 15.6 0.22 0.22 0.22 84 1007.6
20260505175035 55 252 7.8 15.6 0.21 0.21 0.20 84 1007.6
20260505174934 55 288 7.8 15.6 0.20 0.20 0.19 83 1007.5
20260505174833 55 295 7.8 15.6 0.18 0.18 0.17 83 1007.6
20260505174740 55 284 7.8 15.6 0.17 0.17 0.17 83 1007.6
20260505174647 55 274 7.0 14.8 0.16 0.16 0.16 83 1007.6
20260505174612 56 259 7.0 14.8 0.15 0.15 0.14 82 1007.6
20260505174527 56 293 7.0 16.5 0.13 0.13 0.13 81 1007.6
20260505174446 56 231 7.8 19.1 0.12 0.12 0.10 81 1007.7
20260505174403 56 290 7.0 19.1 0.09 0.09 0.09 81 1007.6
20260505174320 57 255 7.0 19.1 0.08 0.08 0.07 80 1007.8
20260505174247 57 307 7.0 19.1 0.06 0.06 0.05 80 1007.8
20260505174158 57 253 7.0 19.1 0.04 0.04 0.03 78 1007.8
20260505173903 58 269 7.8 19.1 0.03 0.03 0.02 77 1007.9
20260505173831 58 286 7.8 19.1 0.02 0.02 0.02 77 1007.9
20260505173750 58 262 8.7 19.1 0.02 0.02 0.01 76 1007.8
20260505173713 59 231 8.7 19.1 0.00 0.00 0.00 75 1007.8
20260505173632 59 249 8.7 19.1 0.00 0.00 0.00 74 1007.8
20260505173328 60 216 7.8 17.4 0.00 0.00 0.00 71 1007.8
20260505173229 60 259 7.8 17.4 0.00 0.00 0.00 70 1007.7
20260505173125 60 215 7.0 17.4 0.00 0.00 0.00 68 1007.7
20260505173031 61 243 7.0 17.4 0.00 0.00 0.00 67 1007.8
20260505172927 61 226 6.1 17.4 0.00 0.00 0.00 66 1007.8
20260505172822 62 216 5.2 17.4 0.00 0.00 0.00 65 1007.8
20260505172724 62 248 4.3 17.4 0.00 0.00 0.00 65 1007.6
20260505172624 62 229 3.5 17.4 0.00 0.00 0.00 66 1007.7
20260505172524 62 236 1.7 15.6 0.00 0.00 0.00 68 1007.6
20260505172421 62 237 0.9 7.8 0.00 0.00 0.00 68 1007.4
20260505172315 62 281 0.9 3.5 0.00 0.00 0.00 67 1006.9
20260505172216 62 325 0.9 3.5 0.00 0.00 0.00 67 1006.6
20260505172113 63 325 0.9 3.5 0.00 0.00 0.00 67 1006.6
20260505172019 63 322 0.9 4.3 0.00 0.00 0.00 67 1006.6
20260505171807 63 321 0.9 4.3 0.00 0.00 0.00 67 1006.4
20260505171707 63 333 0.9 4.3 0.00 0.00 0.00 67 1006.5
20260505171612 63 328 1.7 5.2 0.00 0.00 0.00 67 1006.4
20260505171518 63 326 1.7 5.2 0.00 0.00 0.00 67 1006.5
20260505171305 63 326 1.7 5.2 0.00 0.00 0.00 67 1006.4
20260505171215 63 326 1.7 5.2 0.00 0.00 0.00 67 1006.4
20260505171106 63 326 1.7 5.2 0.00 0.00 0.00 67 1006.4
20260505171012 63 333 1.7 5.2 0.00 0.00 0.00 67 1006.5
20260505170757 63 2 1.7 5.2 0.00 0.00 0.00 67 1006.4
20260505170654 63 327 0.9 5.2 0.00 0.00 0.00 67 1006.4
20260505170555 63 332 0.9 5.2 0.00 0.00 0.00 67 1006.3
20260505170455 63 329 0.9 3.5 0.00 0.00 0.00 67 1006.4
20260505170256 63 328 0.9 3.5 0.00 0.00 0.00 67 1006.3
20260505170156 63 331 0.9 4.3 0.00 0.00 0.00 67 1006.4
20260505170104 64 331 0.9 4.3 0.00 0.00 0.00 66 1006.4
20260505165954 64 331 1.7 4.3 0.00 0.00 0.00 66 1006.3
20260505165743 64 35 1.7 4.3 0.00 0.00 0.00 67 1006.3
20260505165644 64 35 1.7 4.3 0.00 0.00 0.00 66 1006.3
20260505165543 64 35 1.7 4.3 0.00 0.00 0.00 66 1006.3
20260505165444 64 30 1.7 4.3 0.00 0.00 0.00 66 1006.3
20260505165345 64 32 1.7 4.3 0.00 0.00 0.00 66 1006.4
20260505165240 64 35 1.7 4.3 0.00 0.00 0.00 66 1006.4
20260505165136 64 34 1.7 4.3 0.00 0.00 0.00 66 1006.4
20260505165038 64 12 1.7 4.3 0.00 0.00 0.00 66 1006.3
20260505164939 64 351 1.7 4.3 0.00 0.00 0.00 66 1006.3
20260505164839 64 347 1.7 4.3 0.00 0.00 0.00 66 1006.4
20260505164738 64 21 1.7 4.3 0.00 0.00 0.00 66 1006.4
20260505164636 64 32 1.7 4.3 0.00 0.00 0.00 66 1006.4
20260505164536 64 32 1.7 7.0 0.00 0.00 0.00 67 1006.4
20260505164437 64 21 1.7 7.0 0.00 0.00 0.00 66 1006.5
20260505164337 64 44 1.7 7.0 0.00 0.00 0.00 67 1006.4
20260505164234 64 54 1.7 7.0 0.00 0.00 0.00 67 1006.5
20260505164135 64 36 1.7 7.0 0.00 0.00 0.00 67 1006.5
20260505164032 64 35 1.7 7.0 0.00 0.00 0.00 67 1006.5
20260505163934 64 50 1.7 7.0 0.00 0.00 0.00 67 1006.5
20260505163830 64 58 1.7 7.0 0.00 0.00 0.00 67 1006.4
20260505163730 64 25 1.7 7.0 0.00 0.00 0.00 67 1006.5
20260505163629 64 48 1.7 7.0 0.00 0.00 0.00 68 1006.5
20260505163535 64 44 1.7 5.2 0.00 0.00 0.00 68 1006.5
20260505163446 64 324 1.7 6.1 0.00 0.00 0.00 68 1006.5
20260505163358 64 38 1.7 7.8 0.00 0.00 0.00 68 1006.5
20260505163312 64 24 2.6 7.8 0.00 0.00 0.00 68 1006.5
20260505163239 64 21 2.6 7.8 0.00 0.00 0.00 68 1006.5
20260505163207 64 22 2.6 7.8 0.00 0.00 0.00 67 1006.5
20260505163120 64 47 2.6 7.8 0.00 0.00 0.00 67 1006.5
20260505162816 64 44 2.6 7.8 0.00 0.00 0.00 67 1006.6
20260505162715 64 46 3.5 7.8 0.00 0.00 0.00 66 1006.6
20260505162617 64 19 3.5 7.8 0.00 0.00 0.00 67 1006.7
20260505162518 64 18 2.6 7.8 0.00 0.00 0.00 67 1006.7
20260505162413 64 32 2.6 7.8 0.00 0.00 0.00 66 1006.7
20260505162311 64 35 3.5 7.8 0.00 0.00 0.00 66 1006.7
20260505162209 64 356 3.5 9.6 0.00 0.00 0.00 66 1006.7
20260505162118 64 16 3.5 9.6 0.00 0.00 0.00 67 1006.7
20260505162021 64 16 4.3 10.4 0.00 0.00 0.00 66 1006.6
20260505161921 64 18 4.3 10.4 0.00 0.00 0.00 66 1006.7
20260505161843 64 45 4.3 10.4 0.00 0.00 0.00 66 1006.8
20260505161811 64 30 4.3 10.4 0.00 0.00 0.00 66 1006.6
20260505161735 64 80 4.3 10.4 0.00 0.00 0.00 66 1006.8
20260505161640 65 49 4.3 10.4 0.00 0.00 0.00 66 1006.7
20260505161554 65 44 5.2 13.0 0.00 0.00 0.00 66 1006.7
20260505161507 65 40 4.3 13.0 0.00 0.00 0.00 66 1006.7
20260505161430 65 30 4.3 13.0 0.00 0.00 0.00 66 1006.8
20260505161341 65 48 4.3 13.0 0.00 0.00 0.00 66 1006.8
20260505161303 65 25 4.3 13.0 0.00 0.00 0.00 66 1006.8
20260505161218 65 51 4.3 13.0 0.00 0.00 0.00 66 1006.8
20260505160925 65 18 4.3 13.0 0.00 0.00 0.00 66 1006.8
20260505160852 65 66 4.3 13.0 0.00 0.00 0.00 66 1006.8
20260505160812 65 32 4.3 13.0 0.00 0.00 0.00 66 1006.8
20260505160713 65 35 4.3 10.4 0.00 0.00 0.00 66 1006.8
20260505160426 65 54 4.3 11.3 0.00 0.00 0.00 66 1006.8
20260505160346 65 56 4.3 11.3 0.00 0.00 0.00 66 1006.8
20260505160308 65 24 4.3 11.3 0.00 0.00 0.00 66 1006.8
20260505160237 65 20 4.3 11.3 0.00 0.00 0.00 66 1006.8
20260505160147 65 27 3.5 11.3 0.00 0.00 0.00 66 1006.8
20260505160110 65 60 4.3 11.3 0.00 0.00 0.00 67 1006.7
20260505153233 65 18 2.6 7.0 0.00 0.00 0.00 67 1006.9
20260505153132 65 325 2.6 7.0 0.00 0.00 0.00 67 1006.9
20260505153032 65 356 2.6 7.0 0.00 0.00 0.00 67 1007.0
20260505152930 65 44 2.6 6.1 0.00 0.00 0.00 67 1007.0
20260505152733 65 30 3.5 6.1 0.00 0.00 0.00 67 1007.0
20260505152631 65 6 3.5 6.1 0.00 0.00 0.00 67 1007.0
20260505152531 65 54 2.6 6.1 0.00 0.00 0.00 67 1007.0
20260505152430 65 59 3.5 6.1 0.00 0.00 0.00 67 1007.1
20260505152229 65 347 3.5 7.8 0.00 0.00 0.00 68 1007.1
20260505152135 65 42 2.6 7.8 0.00 0.00 0.00 68 1007.1
20260505152030 65 47 2.6 7.8 0.00 0.00 0.00 68 1007.2
20260505151948 65 20 2.6 7.8 0.00 0.00 0.00 68 1007.2
20260505151820 65 56 2.6 7.8 0.00 0.00 0.00 68 1007.2
20260505151748 65 85 2.6 7.8 0.00 0.00 0.00 68 1007.1
20260505151711 65 68 2.6 7.8 0.00 0.00 0.00 68 1007.1
20260505151625 65 11 2.6 7.8 0.00 0.00 0.00 68 1007.3
20260505151542 65 62 1.7 7.8 0.00 0.00 0.00 68 1007.1
20260505151226 65 329 2.6 8.7 0.00 0.00 0.00 68 1007.1
20260505151127 65 329 2.6 8.7 0.00 0.00 0.00 68 1007.1
20260505151042 65 14 2.6 9.6 0.00 0.00 0.00 68 1007.2
20260505150955 65 2 3.5 9.6 0.00 0.00 0.00 67 1007.1
20260505150823 65 37 3.5 10.4 0.00 0.00 0.00 67 1007.2
20260505150741 65 11 3.5 10.4 0.00 0.00 0.00 67 1007.2
20260505150701 65 59 3.5 10.4 0.00 0.00 0.00 67 1007.3
20260505150616 65 36 3.5 10.4 0.00 0.00 0.00 67 1007.3
20260505150313 65 16 3.5 10.4 0.00 0.00 0.00 66 1007.2
20260505150209 65 63 4.3 10.4 0.00 0.00 0.00 66 1007.2
20260505150114 65 34 3.5 10.4 0.00 0.00 0.00 65 1007.2
20260505140628 66 317 2.6 10.4 0.00 0.00 0.00 61 1007.4
20260505140533 66 5 1.7 10.4 0.00 0.00 0.00 62 1007.4
20260505140427 66 347 1.7 8.7 0.00 0.00 0.00 62 1007.4
20260505140328 66 7 1.7 7.8 0.00 0.00 0.00 62 1007.4
20260505140224 66 329 1.7 9.6 0.00 0.00 0.00 62 1007.4
20260505140125 66 324 1.7 9.6 0.00 0.00 0.00 62 1007.5
20260505130257 67 328 2.6 9.6 0.00 0.00 0.00 58 1008.0
20260505130159 67 324 2.6 9.6 0.00 0.00 0.00 58 1008.0
20260505130104 67 34 2.6 9.6 0.00 0.00 0.00 59 1008.0
20260505124953 68 331 3.5 12.2 0.00 0.00 0.00 57 1008.0
20260505124851 68 342 3.5 12.2 0.00 0.00 0.00 57 1008.0
20260505124751 68 343 2.6 12.2 0.00 0.00 0.00 58 1008.0
20260505124655 68 321 2.6 7.8 0.00 0.00 0.00 58 1008.0
20260505124555 68 13 2.6 8.7 0.00 0.00 0.00 58 1007.9
20260505124451 69 21 2.6 8.7 0.00 0.00 0.00 57 1008.0
20260505124407 69 25 2.6 8.7 0.00 0.00 0.00 58 1008.0
20260505124325 69 36 2.6 8.7 0.00 0.00 0.00 59 1008.0
20260505124243 69 315 2.6 8.7 0.00 0.00 0.00 58 1007.9
20260505124206 69 325 2.6 8.7 0.00 0.00 0.00 57 1008.0
20260505124124 69 319 2.6 8.7 0.00 0.00 0.00 59 1007.9
20260505124049 69 329 3.5 8.7 0.00 0.00 0.00 58 1008.0
20260505123747 68 327 3.5 9.6 0.00 0.00 0.00 59 1008.0
20260505123650 68 329 3.5 9.6 0.00 0.00 0.00 58 1008.0
20260505123545 68 25 3.5 9.6 0.00 0.00 0.00 57 1008.0
20260505123447 68 324 4.3 9.6 0.00 0.00 0.00 58 1007.9
20260505123348 67 318 4.3 9.6 0.00 0.00 0.00 58 1008.0
20260505123247 67 335 4.3 9.6 0.00 0.00 0.00 58 1008.0
20260505123143 67 321 4.3 9.6 0.00 0.00 0.00 58 1008.0
20260505123045 67 333 3.5 9.6 0.00 0.00 0.00 57 1008.0
20260505122945 67 319 3.5 9.6 0.00 0.00 0.00 58 1008.0
20260505122846 67 312 3.5 9.6 0.00 0.00 0.00 58 1008.0
20260505122742 67 317 3.5 8.7 0.00 0.00 0.00 58 1008.0
20260505122642 67 314 3.5 8.7 0.00 0.00 0.00 58 1008.0
20260505122539 67 324 3.5 8.7 0.00 0.00 0.00 57 1008.1
20260505122443 67 322 3.5 8.7 0.00 0.00 0.00 58 1008.1
20260505122342 67 318 2.6 7.8 0.00 0.00 0.00 58 1008.1
20260505122241 67 332 3.5 11.3 0.00 0.00 0.00 59 1008.0
20260505122139 67 329 3.5 11.3 0.00 0.00 0.00 59 1008.1
20260505122041 67 333 3.5 11.3 0.00 0.00 0.00 59 1008.1
20260505121942 67 326 4.3 11.3 0.00 0.00 0.00 59 1008.0
20260505121839 67 322 4.3 11.3 0.00 0.00 0.00 59 1008.0
20260505121739 67 329 3.5 11.3 0.00 0.00 0.00 59 1008.1
20260505121641 67 332 3.5 11.3 0.00 0.00 0.00 58 1008.1
20260505121554 67 331 3.5 11.3 0.00 0.00 0.00 59 1008.0
20260505121445 67 327 3.5 11.3 0.00 0.00 0.00 58 1008.1
20260505121340 67 331 3.5 11.3 0.00 0.00 0.00 58 1008.1
20260505121238 67 332 3.5 9.6 0.00 0.00 0.00 59 1008.1
20260505121139 67 327 3.5 9.6 0.00 0.00 0.00 59 1008.1
20260505121036 67 329 3.5 9.6 0.00 0.00 0.00 59 1008.2
20260505120935 67 319 2.6 9.6 0.00 0.00 0.00 59 1008.1
20260505120838 67 338 2.6 9.6 0.00 0.00 0.00 59 1008.1
20260505120739 68 333 2.6 9.6 0.00 0.00 0.00 59 1008.1
20260505120645 68 317 2.6 7.0 0.00 0.00 0.00 60 1008.2
20260505120533 68 327 2.6 7.0 0.00 0.00 0.00 59 1008.2
20260505120433 68 320 1.7 7.0 0.00 0.00 0.00 59 1008.1
20260505120333 68 299 2.6 11.3 0.00 0.00 0.00 60 1008.1
20260505120238 68 315 2.6 11.3 0.00 0.00 0.00 59 1008.1
20260505120136 68 329 2.6 11.3 0.00 0.00 0.00 59 1008.1
20260505120037 68 340 2.6 11.3 0.00 0.00 0.00 59 1008.1
20260505115931 68 359 3.5 11.3 0.00 0.00 0.00 59 1008.2
20260505115836 68 333 3.5 11.3 0.00 0.00 0.00 58 1008.1
20260505115735 68 349 4.3 11.3 0.00 0.00 0.00 58 1008.2
20260505115632 68 329 4.3 11.3 0.00 0.00 0.00 58 1008.1
20260505115536 68 326 5.2 11.3 0.00 0.00 0.00 58 1008.1
20260505115451 68 359 5.2 11.3 0.00 0.00 0.00 58 1008.2
20260505115412 68 327 6.1 10.4 0.00 0.00 0.00 57 1008.1
20260505115324 68 326 6.1 11.3 0.00 0.00 0.00 57 1008.1
20260505115245 68 330 6.1 11.3 0.00 0.00 0.00 57 1008.1
20260505115158 69 314 6.1 11.3 0.00 0.00 0.00 58 1008.2
20260505115116 69 333 6.1 11.3 0.00 0.00 0.00 57 1008.1
20260505115032 69 327 6.1 11.3 0.00 0.00 0.00 57 1008.1
20260505114731 69 325 5.2 11.3 0.00 0.00 0.00 56 1008.2
20260505114632 69 333 5.2 11.3 0.00 0.00 0.00 57 1008.1
20260505114534 69 327 5.2 11.3 0.00 0.00 0.00 57 1008.2
20260505114431 69 320 4.3 11.3 0.00 0.00 0.00 56 1008.2
20260505114331 69 326 3.5 11.3 0.00 0.00 0.00 56 1008.2
20260505114235 69 318 3.5 10.4 0.00 0.00 0.00 57 1008.2
20260505114134 69 316 2.6 10.4 0.00 0.00 0.00 56 1008.3
20260505114033 70 314 2.6 10.4 0.00 0.00 0.00 57 1008.3
20260505113933 70 328 2.6 7.0 0.00 0.00 0.00 57 1008.3
20260505113832 70 324 1.7 6.1 0.00 0.00 0.00 57 1008.3
20260505113732 70 14 1.7 6.1 0.00 0.00 0.00 56 1008.3
20260505113632 70 313 1.7 6.1 0.00 0.00 0.00 55 1008.3
20260505113530 70 299 1.7 6.1 0.00 0.00 0.00 54 1008.3
20260505113427 69 333 1.7 6.1 0.00 0.00 0.00 55 1008.2
20260505113329 69 21 1.7 6.1 0.00 0.00 0.00 52 1008.3
20260505113229 69 43 1.7 6.1 0.00 0.00 0.00 51 1008.2
20260505113127 69 72 1.7 6.1 0.00 0.00 0.00 52 1008.2
20260505113031 69 88 1.7 5.2 0.00 0.00 0.00 51 1008.2
20260505112930 69 75 1.7 7.0 0.00 0.00 0.00 50 1008.3
20260505112827 69 42 2.6 7.0 0.00 0.00 0.00 51 1008.3
20260505112727 69 42 2.6 7.0 0.00 0.00 0.00 51 1008.3
20260505112634 69 60 2.6 7.0 0.00 0.00 0.00 52 1008.3
20260505112531 69 46 2.6 7.0 0.00 0.00 0.00 52 1008.3
20260505112428 68 42 2.6 7.0 0.00 0.00 0.00 52 1008.3
20260505112322 69 49 1.7 7.0 0.00 0.00 0.00 54 1008.3
20260505112219 69 56 1.7 7.0 0.00 0.00 0.00 55 1008.4
20260505112121 68 50 1.7 7.0 0.00 0.00 0.00 54 1008.3
20260505112027 68 58 1.7 7.0 0.00 0.00 0.00 54 1008.4
20260505111923 68 84 0.9 4.3 0.00 0.00 0.00 56 1008.3
20260505111826 68 35 0.9 4.3 0.00 0.00 0.00 56 1008.4
20260505111723 68 353 0.9 4.3 0.00 0.00 0.00 56 1008.4
20260505111620 68 5 0.9 4.3 0.00 0.00 0.00 56 1008.3
20260505111528 68 5 0.9 4.3 0.00 0.00 0.00 56 1008.4
20260505111427 68 4 0.9 4.3 0.00 0.00 0.00 57 1008.4
20260505111325 68 12 1.7 5.2 0.00 0.00 0.00 58 1008.5
20260505111219 67 55 1.7 5.2 0.00 0.00 0.00 58 1008.4
20260505111123 67 55 1.7 5.2 0.00 0.00 0.00 58 1008.4
20260505111020 67 18 1.7 8.7 0.00 0.00 0.00 59 1008.3
20260505110921 67 32 1.7 8.7 0.00 0.00 0.00 58 1008.4
20260505110821 67 32 1.7 8.7 0.00 0.00 0.00 59 1008.3
20260505110721 67 32 1.7 8.7 0.00 0.00 0.00 58 1008.4
20260505110627 67 33 1.7 8.7 0.00 0.00 0.00 58 1008.4
20260505110528 67 33 1.7 8.7 0.00 0.00 0.00 58 1008.4
20260505110414 67 33 2.6 8.7 0.00 0.00 0.00 59 1008.3
20260505110318 67 29 2.6 8.7 0.00 0.00 0.00 58 1008.4
20260505110214 67 30 2.6 8.7 0.00 0.00 0.00 59 1008.4
20260505110138 67 34 1.7 8.7 0.00 0.00 0.00 58 1008.4
20260505102135 68 98 3.5 7.0 0.00 0.00 0.00 55 1008.8
20260505102032 69 127 3.5 7.0 0.00 0.00 0.00 55 1008.8
20260505101932 68 80 3.5 7.0 0.00 0.00 0.00 56 1008.8
20260505101835 68 75 3.5 7.0 0.00 0.00 0.00 56 1008.8
20260505101734 68 82 3.5 7.0 0.00 0.00 0.00 55 1008.9
20260505101633 68 101 2.6 6.1 0.00 0.00 0.00 55 1008.8
20260505101530 68 125 2.6 5.2 0.00 0.00 0.00 55 1008.9
20260505101430 68 120 2.6 5.2 0.00 0.00 0.00 55 1008.9
20260505101331 68 121 2.6 6.1 0.00 0.00 0.00 56 1008.9
20260505101230 68 90 3.5 6.1 0.00 0.00 0.00 55 1008.9
20260505101124 68 72 3.5 7.0 0.00 0.00 0.00 55 1008.9
20260505101025 68 106 3.5 7.0 0.00 0.00 0.00 56 1008.9
20260505100924 68 82 3.5 7.0 0.00 0.00 0.00 56 1008.9
20260505100826 67 71 3.5 7.0 0.00 0.00 0.00 57 1008.9
20260505100727 67 44 4.3 7.0 0.00 0.00 0.00 56 1008.9
20260505100618 67 93 4.3 7.0 0.00 0.00 0.00 57 1009.0
20260505100523 67 75 4.3 7.0 0.00 0.00 0.00 56 1009.0
20260505100420 67 85 4.3 7.0 0.00 0.00 0.00 57 1009.0
20260505100317 67 62 4.3 7.8 0.00 0.00 0.00 57 1009.0
20260505100220 67 85 4.3 9.6 0.00 0.00 0.00 57 1009.0
20260505100122 67 82 4.3 9.6 0.00 0.00 0.00 58 1009.0
20260505100022 67 73 4.3 9.6 0.00 0.00 0.00 59 1009.0
20260505095907 67 74 4.3 9.6 0.00 0.00 0.00 58 1009.1
20260505095812 67 59 4.3 9.6 0.00 0.00 0.00 57 1009.1
20260505095706 67 71 4.3 9.6 0.00 0.00 0.00 58 1009.0
20260505095604 67 104 5.2 9.6 0.00 0.00 0.00 57 1009.1
20260505095510 67 102 4.3 9.6 0.00 0.00 0.00 58 1009.1
20260505095408 67 71 4.3 9.6 0.00 0.00 0.00 58 1009.1
20260505095312 67 70 3.5 9.6 0.00 0.00 0.00 59 1009.0
20260505095204 67 94 3.5 8.7 0.00 0.00 0.00 58 1009.1
20260505095108 67 103 3.5 8.7 0.00 0.00 0.00 58 1009.1
20260505095013 67 76 2.6 8.7 0.00 0.00 0.00 57 1009.1
20260505094908 67 77 2.6 8.7 0.00 0.00 0.00 57 1009.1
20260505094805 67 94 1.7 8.7 0.00 0.00 0.00 58 1009.1
20260505094706 67 73 1.7 7.0 0.00 0.00 0.00 58 1009.1
20260505094604 67 62 1.7 7.0 0.00 0.00 0.00 58 1009.1
20260505094516 67 72 1.7 5.2 0.00 0.00 0.00 59 1009.1
20260505094406 67 303 1.7 5.2 0.00 0.00 0.00 59 1009.1
20260505094309 67 303 2.6 5.2 0.00 0.00 0.00 59 1009.1
20260505094203 67 31 2.6 5.2 0.00 0.00 0.00 61 1009.2
20260505094058 66 61 3.5 7.0 0.00 0.00 0.00 60 1009.2
20260505094001 66 85 3.5 7.0 0.00 0.00 0.00 60 1009.2
20260505093857 66 91 3.5 7.0 0.00 0.00 0.00 60 1009.1
20260505093755 66 94 3.5 7.0 0.00 0.00 0.00 59 1009.2
20260505093654 66 70 3.5 7.0 0.00 0.00 0.00 58 1009.2
20260505093551 66 76 2.6 7.0 0.00 0.00 0.00 58 1009.3
20260505093452 66 77 2.6 7.0 0.00 0.00 0.00 59 1009.2
20260505093353 66 75 2.6 7.0 0.00 0.00 0.00 59 1009.2
20260505093252 66 105 3.5 7.8 0.00 0.00 0.00 59 1009.3
20260505093145 66 98 2.6 7.8 0.00 0.00 0.00 61 1009.3
20260505093050 66 84 2.6 7.8 0.00 0.00 0.00 61 1009.2
20260505092950 66 82 2.6 7.8 0.00 0.00 0.00 61 1009.2
20260505092844 66 96 2.6 7.8 0.00 0.00 0.00 60 1009.2
20260505092747 66 101 2.6 7.8 0.00 0.00 0.00 60 1009.3
20260505092643 66 83 2.6 7.8 0.00 0.00 0.00 61 1009.2
20260505092541 66 66 2.6 7.8 0.00 0.00 0.00 60 1009.3
20260505092441 66 66 2.6 7.8 0.00 0.00 0.00 60 1009.3
20260505092339 66 78 2.6 7.8 0.00 0.00 0.00 60 1009.3
20260505092135 66 47 2.6 7.0 0.00 0.00 0.00 60 1009.2
20260505092036 66 47 2.6 7.0 0.00 0.00 0.00 61 1009.3
20260505091935 66 55 2.6 7.0 0.00 0.00 0.00 61 1009.3
20260505091837 66 105 2.6 7.0 0.00 0.00 0.00 61 1009.3
20260505091737 66 71 2.6 7.8 0.00 0.00 0.00 61 1009.4
20260505091632 66 99 2.6 7.8 0.00 0.00 0.00 60 1009.4
20260505091533 66 130 2.6 7.8 0.00 0.00 0.00 60 1009.4
20260505091435 65 115 2.6 7.8 0.00 0.00 0.00 62 1009.4
20260505091337 65 106 2.6 7.8 0.00 0.00 0.00 62 1009.4
20260505091134 65 69 2.6 7.8 0.00 0.00 0.00 62 1009.4
20260505091033 65 82 2.6 7.8 0.00 0.00 0.00 61 1009.4
20260505090934 65 82 2.6 7.8 0.00 0.00 0.00 61 1009.4
20260505090831 65 92 2.6 7.8 0.00 0.00 0.00 61 1009.5
20260505090634 65 77 2.6 7.0 0.00 0.00 0.00 64 1009.5
20260505090533 65 78 2.6 7.8 0.00 0.00 0.00 64 1009.5
20260505090432 65 79 2.6 7.8 0.00 0.00 0.00 62 1009.5
20260505090359 65 79 3.5 7.8 0.00 0.00 0.00 63 1009.5
20260505090236 65 99 3.5 7.8 0.00 0.00 0.00 61 1009.6
20260505090155 65 70 3.5 7.8 0.00 0.00 0.00 61 1009.7
20260505090104 66 91 3.5 7.8 0.00 0.00 0.00 63 1009.7
20260505090018 65 90 3.5 7.8 0.00 0.00 0.00 63 1009.7
20260505085840 65 82 3.5 7.8 0.00 0.00 0.00 63 1009.7
20260505085552 65 97 3.5 6.1 0.00 0.00 0.00 63 1009.7
20260505085501 65 87 3.5 6.1 0.00 0.00 0.00 63 1009.7
20260505085422 65 80 3.5 6.1 0.00 0.00 0.00 62 1009.7
20260505085232 65 93 2.6 6.1 0.00 0.00 0.00 63 1009.8
20260505085157 65 90 2.6 6.1 0.00 0.00 0.00 63 1009.8
20260505085058 65 96 2.6 6.1 0.00 0.00 0.00 62 1009.8
20260505085019 65 120 1.7 6.1 0.00 0.00 0.00 63 1009.7
20260505084939 65 58 1.7 6.1 0.00 0.00 0.00 65 1009.8
20260505084620 65 85 1.7 6.1 0.00 0.00 0.00 66 1009.8
20260505084521 65 101 1.7 4.3 0.00 0.00 0.00 66 1009.8
20260505084413 64 99 1.7 4.3 0.00 0.00 0.00 66 1009.8
20260505084312 64 116 1.7 4.3 0.00 0.00 0.00 66 1009.8
20260505084110 64 92 1.7 4.3 0.00 0.00 0.00 68 1009.9
20260505084017 64 81 1.7 4.3 0.00 0.00 0.00 69 1009.8
20260505083903 64 73 0.9 4.3 0.00 0.00 0.00 69 1009.8
20260505083806 63 77 0.9 4.3 0.00 0.00 0.00 69 1009.9
20260505083710 63 104 0.9 3.5 0.00 0.00 0.00 69 1009.8
20260505083603 63 141 1.7 3.5 0.00 0.00 0.00 69 1009.8
20260505083511 63 153 1.7 3.5 0.00 0.00 0.00 69 1009.8
20260505083405 63 158 1.7 3.5 0.00 0.00 0.00 69 1009.8
20260505083303 63 145 1.7 4.3 0.00 0.00 0.00 69 1009.9
20260505083204 63 145 1.7 4.3 0.00 0.00 0.00 69 1009.9
20260505083058 63 141 1.7 5.2 0.00 0.00 0.00 69 1009.9
20260505082957 63 120 1.7 5.2 0.00 0.00 0.00 69 1009.9
20260505082858 63 120 2.6 5.2 0.00 0.00 0.00 68 1010.0
20260505082757 63 118 2.6 5.2 0.00 0.00 0.00 68 1010.0
20260505082659 63 112 2.6 5.2 0.00 0.00 0.00 68 1009.9
20260505082551 63 97 2.6 5.2 0.00 0.00 0.00 69 1009.9
20260505082450 63 104 2.6 5.2 0.00 0.00 0.00 69 1009.9
20260505082349 63 113 2.6 5.2 0.00 0.00 0.00 70 1009.9
20260505082249 63 98 2.6 5.2 0.00 0.00 0.00 69 1009.9
20260505082152 63 66 2.6 4.3 0.00 0.00 0.00 70 1009.9
20260505082050 63 103 2.6 6.1 0.00 0.00 0.00 70 1009.9
20260505081945 63 106 2.6 6.1 0.00 0.00 0.00 70 1009.9
20260505081843 63 96 2.6 6.1 0.00 0.00 0.00 71 1009.9
20260505081743 62 125 2.6 6.1 0.00 0.00 0.00 71 1009.9
20260505081643 62 113 2.6 6.1 0.00 0.00 0.00 71 1009.9
20260505081540 62 106 2.6 6.1 0.00 0.00 0.00 70 1009.9
20260505081438 63 101 2.6 6.1 0.00 0.00 0.00 70 1009.9
20260505081338 62 96 1.7 6.1 0.00 0.00 0.00 70 1009.9
20260505081238 62 111 1.7 6.1 0.00 0.00 0.00 70 1009.9
20260505081140 63 102 1.7 6.1 0.00 0.00 0.00 70 1010.0
20260505081033 63 76 0.9 3.5 0.00 0.00 0.00 71 1009.9
20260505080933 63 96 0.9 3.5 0.00 0.00 0.00 71 1010.0
20260505080835 62 100 0.9 3.5 0.00 0.00 0.00 72 1010.0
20260505080733 62 112 1.7 3.5 0.00 0.00 0.00 73 1009.9
20260505080632 62 111 1.7 3.5 0.00 0.00 0.00 72 1010.0
20260505080529 62 141 1.7 3.5 0.00 0.00 0.00 72 1010.0
20260505080430 62 117 1.7 3.5 0.00 0.00 0.00 73 1010.0
20260505080332 62 58 1.7 3.5 0.00 0.00 0.00 73 1010.0
20260505080234 61 58 1.7 3.5 0.00 0.00 0.00 73 1010.0
20260505080132 61 57 1.7 3.5 0.00 0.00 0.00 73 1010.1
20260505080033 61 55 1.7 3.5 0.00 0.00 0.00 73 1010.1
20260505075927 61 59 1.7 3.5 0.00 0.00 0.00 73 1010.1
20260505075824 61 99 1.7 3.5 0.00 0.00 0.00 73 1010.1
20260505075723 61 92 1.7 3.5 0.00 0.00 0.00 73 1010.0
20260505075623 61 115 1.7 3.5 0.00 0.00 0.00 73 1010.1
20260505075521 62 111 0.9 3.5 0.00 0.00 0.00 72 1010.1
20260505075420 62 112 0.9 3.5 0.00 0.00 0.00 72 1010.1
20260505075320 62 113 0.9 3.5 0.00 0.00 0.00 73 1010.1
20260505075220 62 76 0.9 2.6 0.00 0.00 0.00 73 1010.1
20260505075125 62 329 0.9 3.5 0.00 0.00 0.00 73 1010.1
20260505075017 62 329 0.9 3.5 0.00 0.00 0.00 74 1010.1
20260505074907 62 346 0.9 3.5 0.00 0.00 0.00 74 1010.2
20260505074809 62 347 0.9 3.5 0.00 0.00 0.00 74 1010.2
20260505074606 61 347 0.9 3.5 0.00 0.00 0.00 75 1010.1
20260505074511 61 54 0.9 3.5 0.00 0.00 0.00 75 1010.2
20260505074405 61 62 1.7 5.2 0.00 0.00 0.00 75 1010.2
20260505074305 61 63 1.7 5.2 0.00 0.00 0.00 75 1010.1
20260505074207 60 55 1.7 5.2 0.00 0.00 0.00 75 1010.2
20260505074107 60 51 1.7 5.2 0.00 0.00 0.00 75 1010.2
20260505074000 60 51 1.7 5.2 0.00 0.00 0.00 75 1010.2
20260505073902 60 51 1.7 5.2 0.00 0.00 0.00 75 1010.3
20260505073802 60 52 1.7 5.2 0.00 0.00 0.00 76 1010.1
20260505073708 60 61 1.7 5.2 0.00 0.00 0.00 77 1010.2
20260505073602 60 16 1.7 5.2 0.00 0.00 0.00 76 1010.2
20260505073503 60 325 1.7 5.2 0.00 0.00 0.00 77 1010.3
20260505073401 60 326 0.9 3.5 0.00 0.00 0.00 76 1010.2
20260505073258 60 290 0.9 3.5 0.00 0.00 0.00 76 1010.3
20260505073159 60 317 0.9 3.5 0.00 0.00 0.00 75 1010.2
20260505073058 60 318 1.7 4.3 0.00 0.00 0.00 76 1010.3
20260505072957 60 305 1.7 4.3 0.00 0.00 0.00 76 1010.3
20260505072853 60 287 1.7 4.3 0.00 0.00 0.00 77 1010.3
20260505072757 60 329 1.7 4.3 0.00 0.00 0.00 78 1010.2
20260505072700 60 329 1.7 4.3 0.00 0.00 0.00 77 1010.3
20260505072550 60 327 1.7 4.3 0.00 0.00 0.00 78 1010.3
20260505072450 60 314 1.7 4.3 0.00 0.00 0.00 79 1010.3
20260505072345 59 305 1.7 4.3 0.00 0.00 0.00 78 1010.3
20260505072246 59 305 1.7 4.3 0.00 0.00 0.00 78 1010.4
20260505072144 59 322 0.9 4.3 0.00 0.00 0.00 78 1010.4
20260505072046 59 326 0.9 4.3 0.00 0.00 0.00 79 1010.4
20260505071943 59 322 0.9 4.3 0.00 0.00 0.00 79 1010.4
20260505071843 59 350 0.9 4.3 0.00 0.00 0.00 80 1010.5
20260505071744 59 350 0.9 4.3 0.00 0.00 0.00 80 1010.4
20260505071642 58 18 0.9 4.3 0.00 0.00 0.00 80 1010.4
20260505071542 58 6 0.9 5.2 0.00 0.00 0.00 79 1010.4
20260505071441 58 318 1.7 5.2 0.00 0.00 0.00 80 1010.4
20260505071340 58 334 1.7 5.2 0.00 0.00 0.00 80 1010.5
20260505071239 58 334 1.7 5.2 0.00 0.00 0.00 80 1010.5
20260505071140 58 331 1.7 5.2 0.00 0.00 0.00 80 1010.4
20260505071039 58 331 1.7 5.2 0.00 0.00 0.00 80 1010.5
20260505070937 58 330 1.7 5.2 0.00 0.00 0.00 80 1010.4
20260505070837 58 329 2.6 5.2 0.00 0.00 0.00 81 1010.4
20260505070733 58 329 2.6 5.2 0.00 0.00 0.00 81 1010.4
20260505070634 58 327 2.6 5.2 0.00 0.00 0.00 80 1010.4
20260505070534 58 333 2.6 5.2 0.00 0.00 0.00 80 1010.4
20260505070435 58 326 1.7 5.2 0.00 0.00 0.00 81 1010.4
20260505070339 57 307 1.7 3.5 0.00 0.00 0.00 81 1010.5
20260505070232 57 302 1.7 3.5 0.00 0.00 0.00 81 1010.5
20260505070134 57 320 1.7 3.5 0.00 0.00 0.00 81 1010.5
20260505070037 57 330 1.7 3.5 0.00 0.00 0.00 80 1010.4
20260505065935 57 329 0.9 3.5 0.00 0.00 0.00 81 1010.4
20260505065837 57 327 0.9 3.5 0.00 0.00 0.00 81 1010.4
20260505065730 57 329 0.9 3.5 0.00 0.00 0.00 81 1010.4
20260505065630 57 324 0.9 3.5 0.00 0.00 0.00 81 1010.5
20260505065530 57 324 0.9 3.5 0.00 0.00 0.00 81 1010.5
20260505065431 57 324 0.9 3.5 0.00 0.00 0.00 81 1010.4
20260505065329 57 324 0.9 3.5 0.00 0.00 0.00 81 1010.4
20260505065231 57 331 0.9 3.5 0.00 0.00 0.00 81 1010.5
20260505065144 57 329 0.9 3.5 0.00 0.00 0.00 81 1010.4
20260505065107 57 331 0.9 3.5 0.00 0.00 0.00 82 1010.5
20260505065022 57 331 0.9 4.3 0.00 0.00 0.00 81 1010.5
20260505064949 57 331 0.9 4.3 0.00 0.00 0.00 81 1010.5
20260505064918 57 331 0.9 4.3 0.00 0.00 0.00 81 1010.5
20260505064615 57 331 1.7 4.3 0.00 0.00 0.00 81 1010.5
20260505064519 57 331 1.7 4.3 0.00 0.00 0.00 81 1010.5
20260505064415 57 331 1.7 4.3 0.00 0.00 0.00 81 1010.5
20260505064316 57 331 1.7 4.3 0.00 0.00 0.00 81 1010.5
20260505064215 57 331 1.7 4.3 0.00 0.00 0.00 81 1010.5
20260505064113 57 329 1.7 4.3 0.00 0.00 0.00 82 1010.5
20260505064017 57 331 0.9 4.3 0.00 0.00 0.00 82 1010.6
20260505063913 56 329 0.9 4.3 0.00 0.00 0.00 81 1010.5
20260505063818 56 329 0.9 4.3 0.00 0.00 0.00 81 1010.6
20260505063714 56 330 0.9 4.3 0.00 0.00 0.00 81 1010.6
20260505063608 57 328 0.9 4.3 0.00 0.00 0.00 81 1010.6
20260505063520 57 333 0.9 3.5 0.00 0.00 0.00 82 1010.6
20260505063413 57 333 0.9 3.5 0.00 0.00 0.00 82 1010.5
20260505063307 57 335 0.9 3.5 0.00 0.00 0.00 82 1010.6
20260505063207 57 335 0.9 3.5 0.00 0.00 0.00 82 1010.6
20260505063106 56 335 0.9 3.5 0.00 0.00 0.00 82 1010.6
20260505063010 56 6 0.9 4.3 0.00 0.00 0.00 82 1010.6
20260505062908 56 6 0.9 4.3 0.00 0.00 0.00 81 1010.6
20260505062808 56 6 0.9 4.3 0.00 0.00 0.00 82 1010.6
20260505062707 56 6 0.9 4.3 0.00 0.00 0.00 82 1010.6
20260505062606 56 329 0.9 4.3 0.00 0.00 0.00 82 1010.6
20260505062514 56 329 0.9 4.3 0.00 0.00 0.00 82 1010.6
20260505062405 56 338 0.9 4.3 0.00 0.00 0.00 82 1010.7
20260505062308 56 42 0.9 4.3 0.00 0.00 0.00 82 1010.6
20260505062206 56 67 0.9 4.3 0.00 0.00 0.00 82 1010.7
20260505062104 56 67 0.9 4.3 0.00 0.00 0.00 83 1010.6
20260505062005 56 40 0.9 4.3 0.00 0.00 0.00 83 1010.6
20260505061905 56 326 0.9 4.3 0.00 0.00 0.00 83 1010.6
20260505061807 56 326 0.9 4.3 0.00 0.00 0.00 83 1010.6
20260505061703 56 325 0.9 4.3 0.00 0.00 0.00 82 1010.7
20260505061604 56 323 0.0 4.3 0.00 0.00 0.00 83 1010.7
20260505061459 56 333 0.0 2.6 0.00 0.00 0.00 83 1010.7
20260505061426 56 333 0.0 2.6 0.00 0.00 0.00 82 1010.7
20260505061358 56 333 0.0 2.6 0.00 0.00 0.00 83 1010.7
20260505061318 56 21 0.0 2.6 0.00 0.00 0.00 83 1010.7
20260505061238 56 21 0.9 2.6 0.00 0.00 0.00 82 1010.7
20260505061156 56 21 0.9 2.6 0.00 0.00 0.00 82 1010.6
20260505061119 56 21 0.9 2.6 0.00 0.00 0.00 82 1010.7
20260505061045 56 14 0.9 2.6 0.00 0.00 0.00 82 1010.7
20260505061009 56 338 0.9 3.5 0.00 0.00 0.00 83 1010.7
20260505060724 56 337 0.9 3.5 0.00 0.00 0.00 83 1010.7
20260505060639 56 337 0.9 4.3 0.00 0.00 0.00 83 1010.7
20260505060600 56 337 0.9 4.3 0.00 0.00 0.00 83 1010.7
20260505060529 56 336 0.9 4.3 0.00 0.00 0.00 83 1010.7
20260505060447 56 333 0.9 4.3 0.00 0.00 0.00 83 1010.8
20260505060149 56 332 0.9 4.3 0.00 0.00 0.00 83 1010.8
20260505060059 56 332 0.9 4.3 0.00 0.00 0.00 83 1010.8
20260505060011 56 248 0.9 4.3 0.00 0.00 0.00 82 1010.8
20260505055931 56 239 0.9 4.3 0.00 0.00 0.00 82 1010.8
20260505055854 56 253 0.9 4.3 0.00 0.00 0.00 82 1010.8
20260505055536 56 217 0.9 3.5 0.00 0.00 0.00 83 1010.9
20260505055431 56 253 0.9 3.5 0.00 0.00 0.00 83 1010.8
20260505055333 56 253 0.9 5.2 0.00 0.00 0.00 83 1010.8
20260505055231 56 253 0.9 5.2 0.00 0.00 0.00 83 1010.8
20260505055132 56 222 1.7 5.2 0.00 0.00 0.00 83 1010.8
20260505055033 56 322 1.7 5.2 0.00 0.00 0.00 83 1010.8
20260505054940 56 322 1.7 5.2 0.00 0.00 0.00 83 1010.8
20260505054846 56 321 1.7 5.2 0.00 0.00 0.00 83 1010.8
20260505054802 56 313 1.7 5.2 0.00 0.00 0.00 83 1010.7
20260505054710 56 313 1.7 5.2 0.00 0.00 0.00 82 1010.7
20260505054625 56 315 1.7 5.2 0.00 0.00 0.00 82 1010.8
20260505054543 56 315 1.7 5.2 0.00 0.00 0.00 82 1010.6
20260505054504 56 326 0.9 5.2 0.00 0.00 0.00 82 1010.7
20260505054417 56 331 0.9 5.2 0.00 0.00 0.00 82 1010.7
20260505054121 56 318 0.9 4.3 0.00 0.00 0.00 82 1010.7
20260505054022 56 293 0.9 4.3 0.00 0.00 0.00 82 1010.7
20260505053918 56 285 0.9 4.3 0.00 0.00 0.00 83 1010.7
20260505053815 56 320 0.9 4.3 0.00 0.00 0.00 83 1010.7
20260505053716 56 320 0.9 4.3 0.00 0.00 0.00 83 1010.7
20260505053616 56 321 0.9 5.2 0.00 0.00 0.00 83 1010.7
20260505053518 56 279 0.9 5.2 0.00 0.00 0.00 83 1010.7
20260505053413 56 276 0.9 5.2 0.00 0.00 0.00 83 1010.7
20260505053308 55 267 0.9 5.2 0.00 0.00 0.00 83 1010.6
20260505053207 55 292 0.9 5.2 0.00 0.00 0.00 84 1010.6
20260505053109 55 314 0.9 5.2 0.00 0.00 0.00 84 1010.7
20260505053019 55 324 1.7 5.2 0.00 0.00 0.00 85 1010.7
20260505052910 55 324 1.7 6.1 0.00 0.00 0.00 84 1010.6
20260505052804 55 324 0.9 6.1 0.00 0.00 0.00 84 1010.6
20260505052709 55 326 0.9 6.1 0.00 0.00 0.00 84 1010.6
20260505052608 55 325 1.7 6.1 0.00 0.00 0.00 85 1010.7
20260505052510 55 320 1.7 6.1 0.00 0.00 0.00 84 1010.7
20260505052405 55 320 1.7 6.1 0.00 0.00 0.00 84 1010.6
20260505052307 55 320 1.7 6.1 0.00 0.00 0.00 84 1010.6
20260505052205 55 326 1.7 6.1 0.00 0.00 0.00 84 1010.6
20260505052102 55 321 1.7 6.1 0.00 0.00 0.00 84 1010.6
20260505052005 55 326 0.9 6.1 0.00 0.00 0.00 84 1010.6
20260505051900 55 327 0.9 5.2 0.00 0.00 0.00 84 1010.6
20260505051759 55 333 0.9 5.2 0.00 0.00 0.00 84 1010.6
20260505051658 55 7 0.9 5.2 0.00 0.00 0.00 84 1010.5
20260505051558 55 15 0.9 5.2 0.00 0.00 0.00 84 1010.5
20260505051456 55 331 0.9 5.2 0.00 0.00 0.00 84 1010.6
20260505051356 55 331 0.9 5.2 0.00 0.00 0.00 84 1010.4
20260505051252 55 330 0.9 4.3 0.00 0.00 0.00 85 1010.5
20260505051151 55 332 0.9 2.6 0.00 0.00 0.00 85 1010.6
20260505051047 55 332 0.9 3.5 0.00 0.00 0.00 85 1010.6
20260505050948 55 327 0.9 4.3 0.00 0.00 0.00 85 1010.6
20260505050839 55 328 0.9 4.3 0.00 0.00 0.00 85 1010.5
20260505050742 54 328 0.0 4.3 0.00 0.00 0.00 85 1010.6
20260505050643 54 327 0.0 4.3 0.00 0.00 0.00 85 1010.6
20260505050539 55 328 0.0 4.3 0.00 0.00 0.00 85 1010.5
20260505050437 54 338 0.0 4.3 0.00 0.00 0.00 85 1010.6
20260505050339 54 346 0.0 4.3 0.00 0.00 0.00 85 1010.6
20260505050237 54 346 0.0 4.3 0.00 0.00 0.00 85 1010.6
20260505050135 54 346 0.0 4.3 0.00 0.00 0.00 86 1010.6
20260505041516 54 328 5.2 10.4 0.00 0.00 0.00 85 1010.6
20260505041410 54 325 6.1 10.4 0.00 0.00 0.00 85 1010.7
20260505041305 54 330 6.1 10.4 0.00 0.00 0.00 84 1010.7
20260505041205 54 325 6.1 10.4 0.00 0.00 0.00 84 1010.7
20260505041019 54 319 6.1 10.4 0.00 0.00 0.00 84 1010.8
20260505040900 54 314 6.1 10.4 0.00 0.00 0.00 84 1010.7
20260505040802 54 316 6.1 10.4 0.00 0.00 0.00 84 1010.8
20260505040717 54 349 7.0 11.3 0.00 0.00 0.00 84 1010.8
20260505040629 54 338 7.0 11.3 0.00 0.00 0.00 84 1010.8
20260505040545 54 319 7.0 11.3 0.00 0.00 0.00 84 1010.8
20260505040506 54 320 7.0 11.3 0.00 0.00 0.00 84 1010.8
20260505040425 54 324 7.0 11.3 0.00 0.00 0.00 84 1010.8
20260505040350 54 314 7.0 11.3 0.00 0.00 0.00 84 1010.7
20260505040057 54 326 7.0 12.2 0.00 0.00 0.00 84 1010.8
20260505035956 54 315 7.0 12.2 0.00 0.00 0.00 84 1010.9
20260505035849 54 324 7.0 12.2 0.00 0.00 0.00 84 1010.8
20260505035751 54 324 6.1 12.2 0.00 0.00 0.00 84 1010.8
20260505035649 54 320 6.1 12.2 0.00 0.00 0.00 84 1010.8
20260505035552 54 328 6.1 12.2 0.00 0.00 0.00 84 1010.8
20260505035452 54 320 6.1 12.2 0.00 0.00 0.00 84 1010.8
20260505035348 54 318 6.1 12.2 0.00 0.00 0.00 84 1010.8
20260505035249 54 319 6.1 12.2 0.00 0.00 0.00 84 1010.8
20260505035150 54 329 5.2 12.2 0.00 0.00 0.00 84 1010.8
20260505035050 54 329 5.2 11.3 0.00 0.00 0.00 84 1010.8
20260505034950 54 331 5.2 11.3 0.00 0.00 0.00 84 1010.8
20260505034849 54 340 5.2 11.3 0.00 0.00 0.00 84 1010.8
20260505034751 54 323 4.3 11.3 0.00 0.00 0.00 84 1010.8
20260505034650 54 338 4.3 11.3 0.00 0.00 0.00 84 1010.8
20260505034551 54 335 4.3 11.3 0.00 0.00 0.00 84 1010.8
20260505034452 54 329 4.3 9.6 0.00 0.00 0.00 84 1010.9
20260505034352 54 322 4.3 9.6 0.00 0.00 0.00 83 1010.8
20260505034251 54 343 4.3 9.6 0.00 0.00 0.00 83 1010.8
20260505034209 54 325 3.5 9.6 0.00 0.00 0.00 84 1010.9
20260505034122 54 319 3.5 8.7 0.00 0.00 0.00 84 1010.9
20260505034031 54 328 3.5 8.7 0.00 0.00 0.00 83 1010.9
20260505033959 54 324 3.5 8.7 0.00 0.00 0.00 83 1010.9